ECMWFFLT2_sfc_temp_000.txt.gz
Temp
84 84 84 80 79 79 78 76 76 75 74 75 75 75 74 74 75 76 76 70 70 72 72 77 74 80 76 78 75 75 76 75 75 75 75 74 74 74 74 74 73 72 73 73 72 72 72 72 72 72 72 73 73 77 81 82 81 82 83 83 81 82
83 83 84 81 80 80 80 79 80 80 80 79 77 77 79 82 80 83 77 77 79 77 77 73 73 77 79 79 77 75 76 76 75 75 75 74 74 73 74 73 73 73 72 72 72 79 77 73 71 71 72 72 78 83 82 82 82 84 83 83 83 76
85 83 83 84 82 80 81 79 78 80 81 79 81 80 83 82 84 84 81 83 79 77 79 74 77 81 81 76 79 74 75 76 75 75 75 74 74 73 73 73 73 72 72 71 80 84 84 85 81 71 72 77 83 83 82 82 82 83 84 83 82 72
84 84 84 82 82 83 83 83 84 83 82 82 81 82 83 84 85 85 77 81 82 81 82 82 77 78 79 82 79 75 74 74 74 75 75 76 74 73 73 73 73 72 72 77 82 84 85 86 84 82 81 82 83 82 82 82 85 84 85 83 84 71
85 84 83 81 82 83 82 83 84 83 83 84 82 82 83 83 84 84 85 77 86 84 84 84 82 82 84 84 83 82 80 81 81 82 75 81 81 80 77 77 74 74 78 80 82 82 82 82 82 82 82 82 82 82 83 82 84 85 84 83 79 72
84 84 83 83 83 82 81 82 82 83 82 82 82 82 84 83 83 83 85 86 84 84 84 84 83 83 83 82 82 82 81 81 81 82 81 82 81 82 83 80 77 76 77 77 79 80 81 81 81 82 83 82 82 82 83 84 84 83 83 83 77 72
85 84 83 87 84 84 83 82 82 83 82 81 81 81 83 84 83 83 83 83 83 84 83 84 82 82 82 81 80 82 82 81 80 81 81 80 81 82 83 83 78 75 76 78 78 79 80 81 81 82 82 83 82 83 83 83 84 83 84 84 78 71
84 83 81 86 83 84 83 82 80 80 82 80 81 81 83 83 83 83 81 82 82 82 83 83 82 82 82 80 80 79 80 83 79 74 79 79 82 83 83 83 79 77 77 78 80 79 79 82 80 80 81 82 82 81 82 84 83 83 83 82 82 73
84 83 83 84 82 84 82 82 82 81 82 77 78 81 82 82 82 84 82 82 82 79 81 82 82 82 82 80 80 79 80 82 78 76 79 81 81 81 81 81 80 79 77 77 78 79 80 80 79 79 81 81 82 83 82 82 82 83 83 83 82 78
85 85 84 83 82 82 82 81 79 79 81 80 81 80 79 82 82 84 83 81 75 79 81 82 81 81 81 80 80 77 77 77 78 78 75 76 81 82 81 81 81 79 79 77 77 78 79 79 79 79 81 81 81 82 82 82 83 84 84 83 82 79
86 82 85 86 83 81 81 82 82 80 81 80 81 79 81 81 82 81 81 81 78 77 79 81 80 79 79 80 78 75 74 74 75 75 75 77 79 79 80 82 81 80 77 78 78 79 79 79 80 81 79 81 81 82 82 81 83 83 84 84 84 83
86 82 81 86 82 82 81 83 81 81 79 80 79 80 81 80 79 80 78 76 77 79 80 81 78 77 78 71 76 77 75 73 73 76 76 76 75 76 77 82 81 79 79 79 77 77 77 79 80 81 82 81 82 81 83 83 82 83 84 85 84 84
85 81 82 81 83 81 81 83 81 81 78 78 78 78 79 79 78 78 77 78 77 78 78 79 78 77 78 81 80 77 75 72 71 75 75 75 76 76 76 79 79 80 79 78 76 76 78 78 78 79 79 79 80 81 82 83 82 82 84 83 84 85
82 82 80 82 80 83 81 80 81 81 79 78 79 79 78 79 78 79 78 77 77 78 80 81 81 79 80 80 78 77 76 72 73 74 74 74 75 69 69 75 80 78 77 76 74 76 77 76 78 79 79 79 79 79 80 82 82 81 82 82 84 83
79 80 80 81 81 80 80 81 83 82 81 80 79 78 79 78 79 79 79 80 78 78 78 79 79 79 78 78 79 78 76 77 75 72 73 75 73 70 70 69 72 78 77 78 77 75 75 72 75 76 77 77 79 79 78 78 80 82 83 82 82 83
79 78 79 79 79 79 80 80 80 79 80 80 81 79 79 79 79 81 81 79 78 77 78 78 78 78 77 77 78 75 76 74 75 73 70 72 73 70 72 74 77 77 75 77 77 72 67 67 67 70 77 78 78 77 78 80 79 80 82 83 84 83
78 78 78 79 79 79 79 80 79 80 79 80 81 81 81 81 80 79 80 79 77 77 77 77 78 77 77 75 76 73 76 74 73 71 69 69 68 70 71 73 72 75 75 73 76 75 70 67 66 66 66 70 77 76 78 79 80 80 83 81 81 83
79 79 79 79 79 79 80 80 80 81 79 81 79 81 82 82 79 80 79 80 78 78 77 78 77 77 76 76 75 74 74 74 72 66 67 69 70 72 71 70 68 70 72 71 71 71 72 72 71 70 66 66 69 78 78 78 80 78 81 81 81 82
78 78 78 78 78 78 78 79 80 78 79 79 79 80 81 81 80 78 79 77 77 76 77 77 77 77 77 78 76 72 69 68 68 67 68 69 70 70 70 70 67 67 69 69 69 69 69 68 68 69 72 69 68 70 79 79 78 79 80 81 82 82
78 79 79 78 79 80 80 79 79 79 79 79 79 79 79 80 78 79 77 78 77 77 79 77 78 77 76 77 77 75 70 70 68 68 67 66 69 70 70 71 70 71 70 69 68 67 66 65 65 66 66 68 69 67 75 74 75 79 79 79 79 80
78 78 78 79 79 80 78 79 78 78 77 78 78 77 77 78 79 78 78 79 78 79 77 76 77 78 76 76 76 77 73 72 70 68 69 67 67 69 71 70 71 69 69 69 68 67 66 66 64 63 66 66 66 71 72 71 71 75 79 80 80 79
78 78 78 79 79 78 79 80 78 78 79 79 80 79 77 77 76 76 76 76 76 76 76 76 76 76 76 77 76 77 74 73 73 72 71 70 68 68 68 70 69 68 68 67 66 67 66 66 63 62 62 62 65 68 70 72 69 73 79 79 79 78
78 78 78 78 79 78 79 78 79 78 80 79 79 78 79 78 77 78 75 76 75 75 76 76 76 76 76 77 77 77 75 75 74 73 72 71 71 70 70 70 69 67 65 67 67 69 66 66 64 65 64 61 60 60 64 67 72 74 76 75 76 78
77 78 78 78 78 79 78 77 78 78 77 78 76 76 76 76 76 76 75 75 75 75 75 76 77 78 76 76 75 76 76 75 74 74 74 72 70 69 69 69 68 67 67 64 66 67 68 66 66 63 59 60 60 59 57 60 63 67 72 74 74 76
78 78 78 77 78 78 76 76 76 76 77 75 76 76 76 76 76 75 75 75 74 75 75 75 75 76 76 75 75 75 75 74 75 75 76 75 73 72 72 71 69 68 68 67 65 65 67 67 67 66 66 60 58 56 58 59 62 62 67 68 69 71
78 78 78 78 78 78 77 76 75 74 73 73 73 73 73 73 74 75 75 74 75 76 75 74 76 76 76 76 74 74 74 75 74 75 74 75 75 75 72 73 72 71 69 68 66 67 65 67 67 69 69 68 65 60 58 60 60 56 62 65 65 69
78 78 78 78 78 77 76 77 75 75 76 75 74 74 76 76 75 76 74 74 75 74 75 74 74 75 75 75 74 74 74 74 74 74 73 73 73 72 73 75 73 72 71 70 68 65 66 64 66 69 69 68 68 66 65 61 57 60 56 60 63 64
78 78 77 77 77 77 77 77 75 76 76 76 76 74 74 75 75 75 75 74 74 75 75 75 74 75 75 75 74 74 74 73 75 75 75 74 73 74 72 72 71 71 72 72 70 67 67 67 64 67 71 69 67 66 68 66 67 63 61 57 58 64
77 77 77 77 76 77 77 77 77 77 76 77 77 76 77 76 75 75 73 74 74 75 75 74 75 74 74 75 74 73 73 73 73 74 74 73 73 72 70 69 69 70 69 69 70 70 71 70 69 68 69 69 70 67 68 67 66 66 62 57 57 59
77 78 77 76 76 77 77 77 77 76 75 76 77 77 78 75 75 74 73 72 73 74 75 74 73 74 74 75 74 74 73 72 72 73 72 72 71 70 69 69 69 69 69 68 69 69 68 70 70 70 70 68 68 69 69 66 67 65 65 64 60 62
77 78 77 76 76 76 77 78 77 77 76 75 75 75 75 73 75 74 73 72 74 74 74 74 74 72 73 74 73 73 72 72 71 71 72 73 71 73 70 70 69 69 68 68 68 68 67 68 69 69 69 70 69 67 64 64 64 64 63 61 62 62
76 77 77 76 76 76 77 77 78 77 76 76 76 75 74 73 74 73 74 73 75 74 73 73 73 73 72 73 72 72 72 72 71 71 71 71 71 71 71 71 71 70 69 69 68 67 67 66 67 68 67 69 69 67 67 67 66 65 63 62 61 62
75 76 76 76 75 75 76 77 77 77 77 77 77 77 76 75 75 75 75 74 74 74 74 72 73 72 72 71 72 71 71 72 71 70 70 71 70 71 71 71 70 69 69 68 69 67 67 65 65 66 67 69 70 68 68 68 66 65 65 64 63 63
76 76 77 76 76 75 76 77 78 78 78 78 77 77 77 77 76 77 77 75 75 75 74 73 73 73 73 73 73 72 71 71 71 71 70 70 70 71 71 74 70 69 68 68 68 67 67 65 65 64 66 67 67 68 68 67 67 66 64 63 64 63
77 77 77 76 76 75 76 76 78 78 78 79 78 78 78 78 77 77 77 76 76 76 76 75 75 74 73 73 72 72 71 71 70 70 70 69 69 70 70 71 70 68 68 69 68 67 67 65 64 64 64 66 65 67 67 69 69 67 68 65 64 63
77 77 77 76 76 76 76 77 77 77 77 77 78 79 78 78 78 78 77 77 76 76 76 77 76 75 73 73 72 71 71 70 70 70 70 70 70 70 69 70 70 68 67 68 66 66 67 65 64 63 64 65 66 67 66 67 67 68 69 66 65 65
77 78 77 76 76 76 76 76 76 76 77 77 77 77 77 77 77 77 77 77 77 77 76 76 75 75 73 73 72 72 71 71 70 70 70 70 70 69 69 69 68 68 67 68 67 66 67 66 65 66 65 63 66 66 66 64 65 65 65 65 66 67

ECMWFFLT2_sfc_temp_003.txt.gz
Temp
82 79 77 80 78 76 72 73 74 74 74 74 75 75 73 73 72 73 75 73 74 79 77 77 76 80 75 77 74 74 75 75 75 74 74 74 74 73 74 74 73 73 73 73 73 72 72 72 71 72 73 72 73 77 81 85 84 84 86 85 84 78
80 81 79 78 77 76 74 75 77 77 77 76 75 75 75 75 75 74 71 76 79 79 79 78 79 77 75 77 77 74 75 75 75 75 74 74 74 74 74 73 73 73 72 72 72 76 74 72 71 72 72 72 75 81 84 84 83 86 86 86 80 76
81 80 79 77 77 75 76 78 80 79 79 77 78 77 76 77 78 77 76 79 79 79 79 80 78 78 78 76 77 74 74 75 74 75 74 74 74 73 73 73 73 73 72 71 76 78 81 80 79 72 73 75 80 84 83 84 83 85 86 83 80 73
87 80 75 74 73 74 72 78 79 79 78 77 79 80 80 77 75 76 81 77 76 78 78 78 76 77 77 78 77 74 74 74 74 74 74 75 73 74 73 72 73 73 73 78 81 82 84 85 83 81 81 81 83 84 83 83 85 85 86 84 80 72
88 87 82 81 81 77 77 80 79 79 77 77 76 77 79 78 73 75 72 73 78 76 78 77 77 79 80 79 77 78 76 77 77 78 74 79 76 76 76 78 77 76 79 81 83 83 83 83 83 83 84 84 83 84 84 84 84 85 85 78 76 72
88 88 85 80 81 79 78 78 75 73 73 74 75 77 79 77 73 74 75 78 76 76 76 75 74 75 76 72 70 74 75 73 74 79 77 80 79 78 78 80 79 79 81 80 80 82 82 82 81 82 84 83 83 83 84 85 85 84 84 80 76 72
86 86 86 88 86 79 77 77 73 72 71 70 72 72 75 76 73 77 78 77 77 76 75 75 71 71 74 74 71 71 74 73 73 73 75 79 80 80 81 80 81 80 80 80 81 81 81 82 81 83 82 84 83 84 84 85 85 84 84 82 76 72
89 86 84 90 87 87 84 83 83 81 83 84 83 74 76 78 78 76 76 73 77 79 75 78 76 79 77 76 75 76 77 73 72 77 77 80 80 81 81 81 80 81 81 80 81 80 81 82 81 81 83 83 83 82 83 85 84 84 84 83 78 73
88 86 86 86 86 86 86 85 84 83 82 82 82 83 75 74 75 78 78 78 80 80 82 78 77 79 77 76 73 72 72 71 71 82 81 79 79 80 81 81 80 80 80 80 80 80 81 81 80 80 82 83 83 83 82 82 83 83 84 85 81 76
89 90 88 87 84 84 83 82 84 82 83 81 82 81 83 82 80 78 79 80 80 76 78 79 76 77 76 75 75 73 72 71 70 73 79 78 78 80 80 81 81 81 81 79 80 81 81 81 81 80 81 82 82 82 82 82 82 83 84 83 83 77
90 86 89 89 86 85 83 83 83 83 84 82 82 82 82 82 78 77 78 78 77 76 79 80 77 77 77 77 74 74 75 76 75 75 77 78 79 81 80 80 80 80 80 80 80 82 81 80 81 82 81 82 83 82 82 82 83 84 85 84 83 79
88 85 84 89 84 84 84 85 85 83 83 83 80 81 82 82 79 76 79 79 78 80 81 79 75 74 74 75 75 75 75 75 76 72 72 79 79 79 80 82 83 81 79 78 78 79 81 81 81 82 82 82 83 82 83 83 83 84 85 85 85 82
87 83 84 84 85 84 84 85 84 84 82 81 81 82 81 80 74 76 77 81 80 79 78 80 76 74 78 77 75 74 75 73 72 70 70 76 78 76 79 79 79 80 79 78 77 75 79 79 79 80 82 83 82 83 84 84 82 82 84 84 84 84
85 84 83 85 82 85 84 84 84 85 82 81 82 81 81 80 81 81 81 80 80 81 81 79 76 74 72 75 76 75 75 73 75 74 71 73 73 74 76 78 79 79 79 78 74 75 77 78 79 81 80 81 81 81 81 83 83 82 82 82 84 83
83 83 83 82 83 83 82 84 85 85 83 81 81 81 81 81 82 81 82 77 79 79 80 79 77 73 70 74 75 75 79 78 76 73 70 71 73 76 76 76 76 78 78 78 78 77 76 71 72 73 74 77 79 83 81 81 81 82 83 81 82 83
81 81 81 81 81 81 81 82 82 81 82 81 81 81 82 81 82 83 80 78 78 77 76 77 79 77 73 74 75 80 69 74 73 73 71 71 75 75 74 74 74 73 74 75 72 73 74 73 71 71 73 74 75 76 79 80 80 81 82 82 83 82
80 80 80 81 81 81 81 82 82 81 82 82 82 81 82 81 81 82 77 76 75 77 76 77 78 80 76 78 81 78 71 70 70 69 71 70 75 75 73 73 70 70 69 70 71 73 71 72 72 71 70 71 73 74 74 75 79 80 83 80 81 83
81 81 80 80 80 80 82 82 82 83 82 83 82 84 84 84 80 80 81 74 71 71 76 75 75 77 77 79 80 70 69 71 71 71 71 74 73 74 71 69 68 69 69 70 71 73 71 70 72 71 70 69 69 70 71 73 72 75 79 80 80 81
80 80 80 80 80 81 80 81 81 81 81 81 82 82 82 82 81 79 79 79 79 78 78 78 78 78 77 77 73 69 69 72 72 69 70 71 72 73 68 68 69 71 71 72 74 75 73 72 72 71 70 70 69 69 71 71 72 73 75 79 81 82
80 80 80 80 80 81 81 80 80 81 80 81 82 81 81 81 80 80 78 79 79 78 79 79 79 78 78 77 75 69 70 72 71 68 67 66 68 70 69 68 71 71 70 70 72 74 72 70 70 70 68 69 69 69 69 69 70 73 74 75 77 81
79 80 80 80 81 82 80 80 80 80 78 79 80 79 79 80 79 78 79 80 79 79 79 78 79 79 78 77 77 72 72 73 73 71 67 66 66 66 67 68 68 67 67 66 65 70 73 71 68 66 66 66 67 70 69 69 69 71 74 74 74 76
79 80 80 81 81 81 81 82 80 80 81 81 81 80 79 78 77 78 77 77 77 79 78 78 78 78 78 79 77 76 74 72 75 73 71 70 68 66 66 66 65 64 65 64 64 71 72 70 65 64 61 62 65 66 68 69 69 70 71 71 71 72
79 80 80 81 81 80 81 80 81 80 82 81 81 79 81 79 79 79 77 77 77 78 78 79 78 78 78 78 78 76 75 75 75 74 72 71 71 68 66 66 66 65 62 66 72 73 71 70 66 65 64 62 59 59 62 64 68 69 69 68 69 71
79 80 80 80 81 80 80 80 80 80 80 80 78 78 78 78 78 78 76 77 77 76 77 78 80 81 79 78 78 77 77 77 75 75 73 71 72 72 71 71 69 69 70 70 71 72 71 70 69 65 59 59 59 59 57 59 63 66 69 71 72 75
79 80 80 80 80 79 78 78 78 78 78 76 77 77 77 76 77 77 76 76 75 77 77 77 77 78 79 78 77 77 77 77 77 76 77 76 75 75 75 73 72 71 70 68 69 70 70 70 69 68 66 61 58 57 58 60 62 62 66 68 73 76
80 80 80 79 79 79 77 76 75 74 73 73 73 74 74 73 75 75 75 76 77 78 77 77 77 78 79 78 76 77 77 77 76 76 76 77 77 76 76 77 73 72 71 71 70 69 66 67 69 68 68 67 63 59 59 60 61 57 63 65 66 71
80 80 80 79 79 78 77 77 76 75 75 75 74 75 76 76 76 76 76 75 76 76 77 76 76 77 77 77 76 76 76 76 76 75 75 75 74 74 77 77 77 75 72 72 71 67 66 65 68 66 67 67 65 65 63 61 58 59 58 63 65 64
80 80 79 79 78 78 77 77 75 76 77 77 76 74 75 75 76 76 75 75 75 75 76 76 76 77 77 76 75 75 75 75 76 77 77 76 75 75 75 75 73 74 75 74 72 68 67 69 66 66 67 65 65 64 63 61 63 62 61 59 61 64
80 79 79 78 77 78 78 77 76 77 76 78 77 76 77 77 76 76 74 76 75 76 76 76 76 75 75 76 75 75 74 75 75 76 77 76 74 74 72 72 72 71 71 71 72 71 71 70 70 67 67 65 66 67 66 65 65 67 64 61 61 61
79 79 78 78 78 78 78 78 77 77 76 77 77 77 78 76 75 75 74 73 74 74 75 74 75 76 75 76 75 75 74 74 73 74 74 74 73 72 72 71 71 71 71 71 71 71 69 70 71 70 71 70 69 68 66 65 66 68 67 65 61 63
79 79 78 77 78 77 78 78 77 77 77 76 76 76 75 74 75 74 73 73 74 74 75 74 74 74 74 75 74 74 73 73 73 73 74 75 73 74 72 71 71 71 71 70 70 70 69 69 70 69 70 71 70 69 67 67 66 69 67 65 65 65
78 78 78 78 77 77 78 78 78 78 77 77 76 76 74 73 74 74 74 74 75 75 74 74 73 73 73 73 73 73 73 73 73 73 73 74 74 74 73 73 73 72 71 71 70 70 68 67 67 68 67 69 69 70 69 69 69 68 67 67 65 64
77 78 77 78 77 77 77 78 78 78 77 77 77 76 76 75 75 75 75 75 74 74 74 73 73 72 72 73 73 72 72 72 72 72 72 73 73 73 73 73 72 71 70 70 69 68 68 66 66 65 65 68 70 71 69 69 69 68 68 68 66 64
77 78 78 77 77 77 77 78 78 78 78 78 77 77 77 76 76 77 77 75 75 75 74 73 73 72 73 74 74 73 73 72 73 72 72 72 72 74 74 74 72 71 70 70 70 69 68 68 67 67 67 67 67 69 68 69 68 68 68 67 65 64
78 78 78 77 77 77 77 78 79 79 79 79 78 78 78 78 77 77 77 76 76 77 76 75 75 74 74 74 73 73 72 72 72 72 72 71 72 72 73 73 73 71 71 71 70 69 68 67 67 67 66 66 66 68 67 70 69 68 70 68 67 66
79 78 78 77 77 77 77 78 78 78 78 79 79 79 79 79 78 78 77 76 76 76 77 77 76 75 74 74 73 72 72 72 72 72 72 72 72 73 72 72 71 70 70 72 69 69 69 68 67 66 67 67 68 68 67 68 69 68 68 67 67 67
79 79 79 78 77 77 77 77 77 78 78 78 78 78 78 78 78 78 78 77 77 77 77 77 76 75 74 74 73 72 72 72 71 72 72 72 72 72 72 72 71 70 69 71 70 69 69 69 68 68 67 67 68 69 68 67 68 67 67 66 67 67

ECMWFFLT2_sfc_temp_006.txt.gz
Temp
78 77 77 77 76 76 75 75 75 75 75 75 75 74 73 74 74 74 75 74 73 74 74 74 74 75 73 74 73 74 74 74 74 74 74 74 74 74 74 74 73 73 73 73 72 72 72 72 72 72 72 72 73 71 73 76 77 77 78 75 74 72
75 77 77 76 76 76 75 76 75 75 75 75 75 74 74 74 75 74 74 75 74 73 75 74 73 74 74 76 74 74 74 74 74 74 74 73 73 73 74 74 73 73 72 72 73 72 71 72 72 72 72 72 71 72 74 78 76 77 76 74 73 72
77 77 77 77 76 76 75 76 76 76 75 75 76 76 75 75 75 75 75 75 72 72 73 73 73 75 75 75 75 74 74 74 74 74 74 74 73 73 73 73 73 73 72 72 72 72 72 72 70 73 73 71 71 73 76 77 76 76 76 75 72 73
78 78 76 76 76 75 75 76 76 75 74 73 74 75 75 75 74 75 74 72 72 72 73 71 75 77 77 76 74 74 74 74 74 74 74 74 74 73 73 73 73 73 72 73 73 73 75 74 72 70 71 72 73 75 76 76 76 78 75 75 73 73
78 77 76 74 74 74 74 75 75 75 74 73 72 73 73 73 74 74 73 72 72 72 72 73 73 73 74 73 74 73 74 74 74 74 73 73 72 72 72 73 72 72 71 73 75 75 75 75 72 73 73 74 76 76 76 76 76 76 75 73 71 72
78 77 75 72 73 73 73 72 74 74 72 70 71 70 71 72 73 73 72 73 71 69 73 72 73 73 73 72 72 73 73 73 74 74 74 74 72 72 72 74 73 73 73 74 75 75 76 75 75 73 75 75 76 76 77 77 76 76 73 71 71 72
74 74 75 74 72 71 70 71 71 73 71 68 68 68 68 71 73 74 73 73 71 72 72 72 73 72 72 72 70 70 70 71 71 71 73 74 73 73 73 74 73 73 75 75 76 77 76 77 75 78 77 77 77 77 77 78 77 76 73 72 71 72
75 72 72 75 71 70 70 71 71 73 73 71 69 68 69 72 72 72 72 72 72 70 70 71 72 71 71 70 69 70 69 69 69 70 71 72 73 74 74 74 74 76 76 76 76 76 76 77 76 74 76 77 76 75 76 77 77 77 74 72 71 72
75 72 71 73 72 70 70 70 69 71 73 73 71 70 71 71 71 71 71 72 71 70 70 68 72 72 72 70 68 69 68 69 70 69 70 71 73 73 74 74 74 75 75 75 75 74 76 76 75 76 75 77 77 77 77 76 75 77 76 73 72 72
86 85 79 73 71 70 72 72 69 69 71 73 70 70 71 71 71 70 69 71 70 70 69 71 72 73 72 69 68 70 71 71 70 71 72 72 74 73 74 74 74 75 77 76 75 75 74 76 77 76 76 75 77 77 76 76 77 77 77 74 73 71
87 83 86 85 82 78 78 73 73 73 72 70 70 69 69 70 70 72 70 69 70 71 71 71 72 74 73 72 70 71 72 72 71 71 70 73 73 73 71 68 69 72 75 75 75 75 75 75 76 77 76 77 76 76 75 76 77 78 77 75 73 72
84 80 78 85 81 81 80 82 78 74 71 69 69 68 68 69 71 73 71 70 69 69 69 70 69 74 74 73 73 72 71 72 72 71 71 70 71 73 73 72 73 75 74 73 73 73 74 74 75 76 77 77 77 76 75 75 76 77 77 77 74 73
83 79 81 80 80 80 80 83 80 80 76 71 68 67 67 69 72 74 72 72 71 71 70 71 72 74 74 74 73 69 68 70 71 70 69 70 72 72 73 74 73 76 73 73 72 72 74 70 73 74 75 77 76 76 78 77 76 76 76 77 76 74
79 82 79 80 78 79 79 79 79 79 78 77 74 68 67 68 70 74 73 71 71 73 73 73 75 73 73 73 72 70 68 69 72 70 70 70 70 71 72 74 74 74 74 72 71 71 71 70 71 73 73 75 75 74 75 77 76 75 75 75 76 75
78 78 79 78 79 79 78 80 80 78 76 77 77 74 73 69 71 71 72 69 71 70 74 74 74 72 72 74 72 69 68 70 71 70 70 70 69 71 72 72 70 72 72 71 71 72 70 69 70 71 71 72 73 74 74 74 75 75 76 74 74 76
77 77 76 76 76 76 77 77 78 79 77 78 77 77 75 74 74 73 72 71 72 72 71 71 74 73 71 72 71 69 68 70 72 71 70 70 71 69 70 70 71 70 69 70 72 69 70 69 69 69 70 70 70 71 71 72 72 74 76 76 76 75
77 76 76 77 77 76 77 78 77 77 78 76 77 76 77 77 75 73 74 72 73 73 73 73 73 74 72 71 70 70 69 70 71 70 69 68 69 70 70 70 68 69 69 68 70 70 69 68 68 68 68 68 69 68 69 70 71 71 74 72 74 75
76 77 75 75 75 76 77 77 77 76 76 77 77 77 78 78 75 73 73 73 73 72 73 73 73 72 71 71 70 69 70 71 70 69 69 68 67 68 69 69 68 69 69 68 67 68 68 68 70 69 67 67 67 67 67 68 69 70 71 72 72 74
76 75 75 75 76 75 75 75 74 76 76 77 75 75 76 76 75 74 73 73 73 72 74 73 73 73 69 69 68 69 69 71 70 69 68 67 67 67 67 67 68 68 68 68 67 67 67 68 70 70 69 67 67 66 67 67 68 69 70 71 72 74
75 75 75 75 75 75 75 74 74 76 75 74 75 75 75 75 75 74 75 75 75 74 76 74 75 73 71 69 69 69 69 70 69 68 67 66 65 64 65 65 66 67 66 67 68 66 65 65 66 67 65 66 67 66 67 66 66 68 68 70 70 70
74 74 74 74 74 75 73 74 74 73 72 73 74 74 73 73 73 72 74 76 74 74 74 74 75 75 72 71 70 70 70 70 69 69 67 65 66 65 65 65 64 65 65 65 64 65 64 64 63 63 64 64 64 67 66 66 66 66 67 67 68 68
74 74 74 74 75 74 76 74 73 74 74 74 74 73 72 71 71 73 72 73 73 74 73 73 73 73 73 73 71 70 70 69 69 69 68 67 66 65 65 65 65 64 65 64 63 64 65 64 62 61 61 60 61 63 65 65 65 65 66 66 67 68
73 74 74 75 74 74 73 74 74 73 74 72 75 73 75 74 73 74 72 73 72 72 74 74 73 73 73 74 72 71 70 69 69 68 65 64 66 65 65 65 64 63 62 63 63 65 63 64 62 64 62 59 57 57 60 62 64 65 66 66 65 66
73 74 74 75 75 74 74 74 73 72 71 72 71 72 72 72 72 72 71 72 72 72 72 72 75 76 74 73 72 71 71 70 70 69 67 65 66 65 65 65 65 65 64 60 62 63 65 64 64 62 57 57 57 57 54 57 60 63 66 66 66 67
74 73 74 74 74 73 73 72 72 71 71 70 71 70 70 70 71 71 71 70 71 72 73 72 73 73 74 72 71 71 71 71 70 71 70 68 67 67 67 66 66 65 63 62 61 62 63 64 64 64 61 58 55 54 56 58 59 60 63 64 66 69
74 74 74 74 73 73 71 70 69 67 66 66 66 67 66 67 68 68 70 71 72 73 73 72 72 73 73 72 71 71 70 71 70 69 70 69 71 70 68 68 68 65 65 65 64 63 60 62 63 63 65 62 61 57 57 59 58 54 61 63 64 65
74 74 74 74 73 72 71 70 69 69 68 67 67 68 69 69 68 69 70 69 70 71 73 71 71 71 71 71 70 70 70 70 70 69 70 68 67 68 70 71 70 68 67 66 65 62 61 59 62 62 62 63 64 64 63 59 57 57 55 59 61 62
74 74 74 73 73 72 71 70 69 69 70 69 69 68 69 69 70 70 69 69 69 70 71 72 71 71 71 70 69 69 69 68 69 71 70 68 67 68 68 69 68 68 68 67 67 63 61 61 61 59 61 60 61 63 64 61 61 58 56 55 58 62
74 73 73 73 72 73 72 71 70 70 69 70 70 70 70 70 69 70 68 69 69 70 70 70 71 69 69 70 69 68 67 67 67 68 70 69 68 69 68 66 66 65 65 65 65 65 64 63 64 62 61 60 62 62 62 62 62 61 58 56 58 59
74 74 73 73 72 72 72 71 70 70 70 69 69 70 70 68 68 69 68 67 67 67 68 68 68 69 68 70 69 68 68 67 66 67 67 67 67 66 65 66 65 65 65 64 65 64 62 63 64 63 64 64 62 62 61 61 61 61 61 61 57 60
73 74 73 72 72 72 72 72 71 71 70 69 69 69 68 67 67 67 67 67 67 67 68 67 68 68 68 69 67 68 67 67 67 67 68 68 66 67 65 65 65 65 64 64 63 62 62 62 63 62 62 61 61 62 61 60 60 62 61 60 59 59
73 73 73 72 72 72 72 71 72 71 71 70 70 69 68 67 68 68 67 67 67 67 66 67 67 67 66 67 67 67 67 67 67 67 66 67 67 67 66 66 65 64 64 63 64 62 61 60 60 61 60 61 61 63 61 60 62 61 60 59 59 57
72 72 72 72 72 72 72 72 72 71 71 71 70 70 69 68 69 68 68 67 67 66 66 66 66 66 66 66 67 66 66 65 65 66 66 66 66 67 66 65 65 64 63 62 62 62 60 59 60 59 60 61 62 63 62 63 63 61 62 62 60 58
72 72 72 72 72 72 72 72 72 72 71 71 70 70 69 70 69 69 69 68 68 67 66 66 66 65 66 67 68 68 67 66 66 66 67 66 67 67 66 67 65 64 63 63 63 62 61 61 60 60 60 60 60 60 60 62 61 61 61 60 59 58
72 73 72 72 72 72 72 72 72 72 72 71 70 70 70 70 70 70 69 69 69 69 67 67 67 67 68 67 67 67 66 66 66 66 66 66 68 67 66 66 65 64 64 64 63 62 61 61 61 61 60 61 60 60 61 61 61 61 62 60 59 58
73 72 73 72 72 72 72 72 72 71 71 71 71 71 71 71 70 70 70 69 69 69 69 68 68 68 67 68 67 66 66 66 66 66 66 66 66 66 66 64 64 64 63 67 63 62 62 61 61 61 61 60 61 60 61 61 62 61 61 60 59 60
69 74 72 72 72 72 72 72 72 72 72 71 71 70 70 70 70 71 71 70 70 71 70 69 68 68 67 68 67 66 66 66 65 66 66 66 66 66 66 65 64 63 63 65 64 63 63 62 62 62 61 62 60 61 60 60 60 61 60 60 60 60

ECMWFFLT2_sfc_temp_009.txt.gz
Temp
73 74 74 73 72 73 74 75 75 75 75 75 74 75 74 75 75 75 74 73 72 71 71 71 72 72 74 72 73 74 74 74 74 74 74 74 73 73 73 73 73 73 73 72 72 72 72 71 73 72 72 72 73 69 69 70 72 71 71 71 70 70
72 73 73 73 73 73 74 74 72 73 73 74 74 74 73 73 75 72 74 72 70 72 70 69 70 74 70 72 73 74 74 74 74 74 74 73 73 73 73 73 73 73 72 72 73 68 69 71 72 72 72 72 68 67 68 69 71 71 71 70 70 71
73 73 73 73 73 73 72 71 71 72 73 73 74 73 72 74 71 71 71 70 69 69 70 70 69 73 72 73 72 74 74 74 74 74 73 73 73 73 73 73 73 73 72 72 69 65 65 65 65 72 73 68 67 66 68 70 70 70 70 70 70 73
74 73 72 72 72 71 71 71 71 71 71 71 72 72 71 71 71 71 70 68 68 70 69 68 75 77 76 73 72 74 74 74 74 74 73 72 73 73 74 73 73 73 71 70 66 66 67 67 66 65 66 66 66 67 68 69 71 71 70 72 71 73
74 74 73 71 72 70 71 71 70 71 70 70 70 70 69 70 70 70 69 69 69 69 68 68 67 69 70 70 69 69 70 70 70 69 72 68 69 70 71 69 69 70 67 67 67 66 68 69 68 67 66 66 68 69 70 71 71 71 70 70 70 73
75 73 72 70 70 72 72 70 69 70 69 69 69 68 68 69 69 70 69 69 68 66 67 67 66 68 69 68 68 69 69 69 69 69 70 69 68 68 68 68 68 68 66 67 67 68 70 71 70 68 69 69 69 70 70 71 71 71 69 68 70 72
72 71 71 72 70 70 69 69 69 68 67 67 66 66 67 67 69 70 69 68 67 66 66 66 66 67 68 68 67 67 66 67 67 67 70 68 69 69 68 68 67 67 67 67 68 69 70 71 69 69 68 70 71 72 71 71 70 70 69 68 70 72
73 71 70 71 69 68 68 69 70 70 68 68 67 66 66 66 69 69 68 67 68 66 65 67 66 67 68 67 66 67 65 66 66 67 67 68 68 68 68 68 68 69 70 70 70 70 70 70 69 69 68 70 70 68 70 71 70 69 69 68 69 71
73 72 71 70 69 68 68 68 68 67 66 69 66 66 67 68 68 68 69 68 68 66 66 65 66 68 66 66 66 66 65 65 66 66 67 67 68 68 68 68 69 70 69 70 69 70 71 71 68 68 69 70 70 71 71 71 71 70 69 68 69 70
73 73 71 71 68 68 67 68 67 67 67 69 66 67 68 67 68 67 66 68 69 67 66 65 65 67 66 65 65 66 65 66 66 66 66 67 67 68 67 69 69 70 71 70 69 70 69 70 71 69 69 70 71 70 70 71 71 70 69 68 68 70
74 73 72 71 69 69 69 68 68 68 69 67 67 68 67 67 67 66 65 66 68 68 67 66 66 66 66 66 65 66 66 67 65 66 67 68 68 68 66 66 70 68 68 70 70 71 70 69 70 72 70 72 71 69 69 70 72 71 71 69 69 68
74 72 70 73 70 69 70 70 69 69 68 67 67 65 66 66 68 66 66 66 67 67 67 65 65 66 65 65 65 66 67 67 66 67 67 66 66 67 66 68 69 68 68 68 68 69 68 67 68 70 72 72 71 71 70 70 72 71 71 70 69 69
76 73 71 71 70 70 69 72 69 68 67 68 67 65 65 66 67 66 67 67 65 65 65 65 65 65 66 66 66 65 66 66 67 65 65 66 68 66 67 67 67 70 67 68 68 67 69 65 68 68 70 71 70 70 71 71 70 71 71 71 70 69
73 74 73 72 71 71 71 70 70 68 68 66 65 65 66 65 66 65 65 67 66 67 66 65 66 65 66 66 67 66 65 65 66 65 65 65 66 66 66 67 67 67 70 68 66 65 65 67 66 67 67 71 69 68 69 70 69 69 70 70 70 69
72 71 72 70 71 71 71 72 71 69 67 65 65 65 65 66 66 66 66 65 66 66 67 66 66 66 66 67 67 64 64 66 66 65 65 65 65 66 65 65 64 67 66 66 65 66 66 66 65 66 66 67 67 69 68 68 69 69 70 69 70 70
70 70 70 70 69 70 71 71 71 71 67 65 64 65 65 65 66 66 65 64 65 66 66 66 67 68 68 68 66 65 64 65 66 66 66 65 65 64 64 66 65 65 65 66 66 64 65 65 64 65 65 65 65 66 66 67 68 68 69 69 70 70
70 69 69 69 69 68 69 70 69 70 69 67 66 64 65 65 65 65 65 64 65 67 67 66 66 67 68 67 65 65 65 65 66 65 64 64 64 64 65 66 64 65 65 65 66 66 64 64 65 64 64 64 64 65 65 65 66 66 70 68 67 69
69 70 69 68 68 67 68 68 67 68 70 68 68 67 67 68 66 67 67 66 66 66 66 66 66 65 67 67 66 64 64 65 66 66 64 63 62 63 64 65 64 65 66 65 63 64 64 64 66 65 64 63 63 63 63 64 64 66 66 67 67 67
69 68 67 67 67 67 67 66 66 68 66 68 69 69 69 68 67 68 68 67 68 68 68 67 66 66 66 67 65 64 63 64 65 64 64 62 62 63 64 64 64 64 64 64 63 64 63 63 66 65 65 63 63 62 62 63 63 63 64 66 67 69
67 67 66 67 68 66 66 66 65 65 67 67 67 67 66 65 66 67 68 68 68 68 69 69 68 67 66 65 65 64 64 65 65 64 63 62 61 62 62 63 63 64 63 64 64 63 62 62 62 63 62 63 63 64 63 62 62 63 63 65 65 65
66 66 67 66 66 65 65 64 63 65 64 65 66 66 65 65 66 65 66 67 67 66 66 67 68 66 65 67 65 64 65 64 64 64 63 62 61 62 62 61 61 61 62 61 61 61 62 62 61 60 61 61 62 63 64 63 62 61 63 63 64 63
65 65 66 66 66 66 65 66 64 64 64 65 66 65 63 64 66 67 65 64 65 66 65 65 66 66 66 65 65 65 65 64 64 63 64 63 63 63 63 62 61 60 61 60 59 61 62 61 58 58 57 57 58 59 63 62 62 61 62 62 63 63
66 66 66 66 64 64 64 64 65 63 66 63 65 66 66 66 66 66 64 65 65 64 64 65 65 66 67 66 65 65 65 64 64 64 63 62 63 62 63 61 60 60 59 60 59 61 61 60 58 59 58 55 54 54 56 57 60 62 63 63 63 63
67 67 66 65 66 65 65 65 66 66 66 67 65 65 64 64 64 65 65 65 64 63 65 64 66 68 67 65 64 64 64 64 64 63 62 61 62 62 62 62 61 61 60 57 58 59 61 60 60 57 55 54 54 53 50 53 56 60 63 63 62 63
67 66 65 66 66 66 66 65 64 64 66 64 64 62 62 61 63 64 65 62 63 64 65 65 65 65 65 64 63 63 63 63 63 63 63 62 62 62 62 62 62 61 60 58 58 59 60 61 60 61 57 55 52 51 51 54 55 57 59 60 63 64
65 65 65 66 66 66 66 64 63 62 60 60 59 59 59 60 60 61 61 62 66 65 65 65 65 65 65 64 63 63 64 65 63 64 63 62 63 63 63 62 62 62 61 60 59 58 57 59 60 60 60 59 58 54 53 56 55 52 57 59 61 62
67 65 65 65 66 66 63 62 62 62 62 61 60 59 60 61 61 61 63 62 62 63 65 64 63 63 63 63 63 62 60 63 64 63 64 63 62 63 64 65 63 61 61 61 61 57 57 57 59 59 60 59 60 60 60 56 53 54 51 55 58 59
67 66 65 65 65 66 64 62 62 62 62 60 61 61 61 61 62 63 62 63 63 62 64 63 62 63 63 64 63 62 61 61 63 65 64 62 61 61 63 63 62 61 61 61 60 58 57 58 57 55 58 57 58 59 59 59 58 56 53 51 54 58
65 66 65 65 65 64 65 64 64 62 61 62 63 62 62 63 63 63 61 60 62 62 62 63 63 62 62 63 62 61 60 60 61 62 64 63 62 62 61 60 60 60 60 60 60 59 58 57 57 56 56 56 57 57 58 57 58 58 55 51 51 55
65 65 65 65 65 64 65 65 62 61 62 61 62 61 62 61 60 60 61 60 60 60 59 59 60 59 59 60 61 61 60 60 59 61 61 60 60 61 60 60 59 59 59 59 58 58 58 57 57 57 57 58 56 57 56 56 57 57 57 56 53 54
64 66 67 66 65 65 65 64 63 63 63 62 62 61 61 59 60 60 60 60 59 59 59 59 59 60 60 59 59 60 60 60 60 61 61 61 59 60 59 58 59 59 58 57 56 56 57 56 56 56 57 56 56 56 55 55 54 56 55 54 52 52
63 65 66 66 64 65 65 63 63 64 64 63 63 62 61 60 60 60 60 59 58 59 59 59 59 58 58 58 59 59 59 59 60 59 59 59 58 59 59 59 58 58 57 56 56 56 54 54 54 55 55 55 55 56 56 56 56 55 55 54 54 52
62 63 66 67 65 65 64 63 64 65 64 64 63 63 62 60 61 61 60 59 59 58 57 59 58 59 58 58 58 59 59 58 59 61 60 61 60 60 60 58 59 57 57 56 54 54 53 52 53 54 54 54 55 56 56 55 57 56 55 55 54 50
61 62 64 65 65 65 66 64 64 65 64 64 63 63 62 62 61 61 61 60 60 59 58 58 58 58 59 58 58 59 58 57 57 57 59 59 60 61 60 59 58 57 56 55 54 53 53 53 53 53 54 54 54 55 54 55 54 56 55 54 52 51
60 61 62 63 64 62 61 63 63 65 64 65 64 64 63 63 62 62 61 61 60 60 59 59 59 59 58 57 58 59 57 57 58 57 58 58 60 58 58 60 58 56 56 55 55 55 53 54 56 54 53 52 55 53 53 54 53 55 56 54 54 53
59 59 60 63 63 63 64 64 64 64 64 65 65 64 63 63 63 63 63 62 61 61 61 60 60 60 58 59 58 58 58 57 57 58 58 57 58 59 58 58 57 57 56 60 56 55 54 53 53 54 54 53 53 54 54 55 56 54 54 55 55 54
60 60 61 62 64 63 63 65 64 64 64 64 64 63 63 63 63 63 64 63 63 62 61 62 61 61 59 59 59 58 57 57 57 57 59 58 57 57 57 57 56 55 56 56 55 55 54 53 54 54 54 53 53 53 53 53 54 54 53 53 54 54

ECMWFFLT2_sfc_temp_012.txt.gz
Temp
71 72 72 72 72 72 74 75 74 75 75 75 74 75 74 74 74 74 74 73 72 70 70 70 71 71 74 71 72 74 74 74 74 74 74 74 73 73 73 73 73 72 72 72 71 72 71 71 71 71 72 72 71 65 66 68 68 68 68 67 68 67
71 71 72 72 72 72 73 74 72 72 73 74 74 75 74 73 75 71 74 71 69 71 69 68 69 74 71 72 72 74 74 74 73 74 73 73 73 73 73 73 73 72 72 71 72 65 65 69 71 71 72 72 65 64 66 68 68 67 68 67 67 69
71 71 71 71 72 72 71 71 71 71 73 74 75 73 71 73 70 70 70 69 70 69 68 68 69 72 71 72 72 74 74 74 73 73 73 73 73 73 73 73 72 72 71 71 67 62 62 62 62 70 70 65 63 65 66 67 67 67 67 68 67 72
72 71 71 70 71 70 70 70 70 71 71 71 71 71 70 70 70 69 69 68 67 69 68 66 75 76 75 71 71 73 74 73 73 73 73 72 73 72 73 73 72 72 71 69 64 63 63 62 63 62 62 64 63 65 66 66 66 67 67 70 68 73
72 72 71 70 70 69 69 69 70 70 70 69 69 69 69 69 69 68 67 67 67 67 66 66 66 67 68 68 67 68 70 69 68 67 72 66 67 68 69 66 67 68 64 64 64 64 63 64 65 64 64 64 64 65 66 67 67 67 67 69 69 72
72 72 71 70 70 71 71 69 69 69 69 68 68 68 68 68 68 68 67 67 67 66 66 66 65 65 66 67 67 68 68 68 67 67 68 67 66 66 65 66 65 65 64 64 65 64 64 65 66 64 65 65 65 65 66 67 67 67 67 66 69 73
71 71 70 71 70 70 69 68 68 68 68 67 67 67 67 67 67 67 67 67 65 65 65 64 65 65 66 67 67 67 67 67 67 67 68 67 67 66 66 66 65 65 64 64 65 65 64 65 64 66 65 66 65 65 67 67 67 67 66 66 70 73
71 70 69 71 70 69 69 68 69 71 68 69 67 66 66 67 68 67 67 67 67 65 65 64 65 65 66 66 66 66 66 66 66 66 68 67 66 66 66 65 65 64 65 65 65 66 65 66 65 65 66 65 65 65 67 67 67 67 67 66 68 71
71 71 69 70 69 68 68 68 69 67 66 71 65 65 66 67 67 67 66 66 67 64 64 65 64 65 65 65 65 65 65 65 65 65 67 66 66 66 66 66 65 65 65 65 64 65 66 67 64 64 65 66 65 66 67 66 66 67 66 66 67 69
71 71 69 69 68 67 67 68 67 66 66 70 65 66 66 66 65 65 65 66 66 65 64 65 65 65 65 64 64 64 64 64 64 64 65 66 65 65 65 65 65 66 66 65 65 66 66 66 65 65 65 66 66 68 67 66 66 66 66 66 66 68
72 71 70 69 67 67 67 67 67 66 67 67 66 66 65 66 65 65 65 67 67 66 66 65 65 65 65 65 64 63 63 63 64 64 65 66 66 66 65 65 66 66 66 66 66 66 66 66 65 67 66 67 66 66 67 67 66 66 66 65 66 67
71 71 69 69 69 67 67 67 67 66 66 66 67 66 66 65 66 64 65 65 66 66 66 64 64 64 64 64 63 63 63 64 64 64 65 66 66 67 66 66 67 67 66 66 65 65 65 65 65 64 65 65 65 67 66 66 67 67 67 65 66 66
71 70 69 68 68 67 67 68 66 66 66 67 66 66 65 65 65 64 65 65 64 65 65 64 63 63 64 63 63 63 63 64 65 65 65 65 66 65 65 65 65 67 64 64 64 64 66 64 64 65 65 66 66 66 66 66 66 66 66 66 65 66
70 69 68 68 67 67 67 67 66 65 67 65 65 64 65 65 65 63 64 64 64 64 64 64 63 62 63 63 63 63 64 64 64 64 64 65 65 63 64 64 64 64 67 64 64 63 64 64 63 64 64 66 65 65 64 66 65 66 66 66 65 66
69 68 69 67 68 67 66 67 66 65 64 64 64 64 64 64 64 65 65 64 64 65 64 64 64 63 63 63 63 63 63 64 65 65 65 64 65 64 63 63 62 64 62 63 64 64 64 63 63 64 63 64 65 66 65 65 65 65 66 66 65 65
68 67 66 66 66 67 67 67 66 66 64 63 64 64 64 64 65 64 64 64 64 65 65 64 63 63 63 63 64 64 64 65 66 65 65 64 64 64 63 63 63 64 62 62 64 62 62 62 62 62 62 63 63 64 64 65 65 66 66 65 67 65
67 66 66 66 65 66 67 66 66 65 63 62 62 62 63 64 64 64 63 63 63 64 64 63 64 64 63 64 64 65 64 65 66 65 64 63 63 63 64 65 62 63 64 62 63 62 62 62 62 62 62 63 63 63 63 64 65 64 66 65 65 66
66 67 66 66 66 65 66 66 64 64 65 63 62 62 63 64 64 63 63 63 63 64 64 63 63 63 63 65 65 65 65 65 65 64 63 62 61 62 63 64 62 62 63 64 62 62 61 62 64 63 62 62 61 62 62 63 63 65 64 65 64 65
67 65 65 65 65 65 64 63 62 64 63 63 63 63 64 63 62 63 62 62 63 63 64 63 63 64 63 65 64 64 63 63 64 64 63 62 62 63 63 62 63 62 62 62 63 63 62 63 63 63 63 61 61 61 61 61 62 62 63 64 65 66
65 64 64 64 65 63 63 63 62 61 63 62 62 63 63 63 63 62 64 64 63 63 64 63 64 63 63 64 63 62 63 63 63 63 62 61 61 61 62 62 61 62 62 62 62 62 62 62 61 61 60 60 60 61 61 61 61 61 61 62 63 64
63 63 65 64 63 62 61 60 61 62 61 60 62 61 61 61 62 63 64 65 64 64 64 64 64 63 62 66 63 62 62 62 63 63 62 61 61 61 61 61 60 60 60 60 60 61 61 62 60 58 59 58 59 61 63 61 60 60 61 61 61 61
62 63 63 63 64 62 60 63 62 61 60 60 61 60 60 60 61 62 61 62 63 63 63 64 63 62 63 63 62 62 62 61 62 62 62 61 61 62 62 61 60 59 59 59 59 61 60 59 56 55 55 56 56 58 61 60 60 59 60 60 60 60
63 64 63 63 62 61 59 62 63 60 63 60 61 60 61 61 62 62 60 60 60 60 61 63 62 63 62 63 62 62 61 61 61 62 61 61 61 60 60 61 60 60 59 59 60 61 59 58 56 56 55 54 52 55 56 56 58 58 61 60 60 60
64 62 62 62 62 59 62 62 63 63 60 62 61 61 60 59 60 62 61 60 60 58 60 60 62 64 63 62 61 61 61 60 60 61 61 60 59 61 61 60 60 59 60 57 57 58 59 58 57 56 56 53 53 52 51 54 54 56 60 60 60 60
63 62 61 62 62 63 64 62 61 61 61 61 60 59 59 58 58 61 60 60 60 60 61 61 60 60 61 60 60 60 60 60 60 60 60 60 59 60 60 60 60 59 58 57 57 59 58 58 59 59 55 53 52 50 50 53 53 54 57 58 59 60
61 61 62 61 64 65 64 63 61 60 58 57 56 56 56 58 57 58 59 60 60 60 61 60 60 60 61 60 59 60 60 60 59 61 61 60 60 60 60 60 59 59 59 58 58 57 56 58 58 58 58 56 55 51 52 55 52 53 54 56 57 59
62 61 62 62 65 65 63 64 63 62 61 59 58 57 57 56 58 58 59 58 59 59 60 60 59 58 59 59 58 57 58 58 59 58 60 59 59 59 60 61 60 59 59 59 59 55 56 56 57 57 57 57 59 58 56 55 52 51 48 51 54 56
62 63 63 63 64 66 64 62 61 60 61 59 59 58 57 57 57 58 58 58 59 58 59 59 59 59 59 60 58 58 58 59 59 60 60 59 58 58 60 60 58 58 59 58 57 57 55 55 55 55 57 56 56 57 57 57 54 54 49 49 51 53
63 63 62 63 64 64 65 63 62 61 59 58 59 59 58 59 58 58 57 56 58 57 57 57 58 58 58 59 59 57 57 59 59 59 60 59 58 59 58 58 57 57 56 56 57 56 56 54 54 54 55 55 55 55 55 56 56 54 52 49 49 51
62 62 63 63 63 63 64 63 61 61 60 58 59 58 57 57 56 56 57 55 55 56 55 56 56 56 57 57 57 57 57 57 57 59 59 58 57 57 57 57 56 56 56 55 55 56 55 53 53 53 54 55 53 54 54 53 52 53 53 54 52 52
62 62 62 62 63 62 64 64 62 61 61 59 59 58 57 55 55 55 56 55 55 55 55 55 56 56 56 56 56 57 56 56 57 59 58 58 57 57 56 55 55 56 56 56 54 54 54 53 54 54 54 54 53 54 54 52 53 52 51 51 51 51
60 61 61 61 62 63 62 62 62 62 62 62 60 60 59 57 56 56 55 55 55 54 54 55 54 56 55 55 56 55 55 55 56 55 55 56 56 56 56 56 55 55 54 53 53 54 53 53 53 53 52 52 52 54 54 53 53 52 51 52 51 49
59 60 61 62 62 63 62 61 62 62 62 62 61 61 60 58 57 57 56 55 54 55 54 56 54 56 54 54 55 56 55 56 55 55 55 56 55 54 54 54 54 53 53 52 51 52 51 49 51 52 51 50 52 53 52 52 52 52 51 51 49 48
58 60 61 61 62 61 61 61 62 62 62 62 61 61 60 59 58 58 57 56 56 56 55 56 55 55 55 55 55 56 55 53 54 54 55 54 54 54 54 55 54 53 53 51 52 51 50 50 50 49 49 51 51 51 50 52 51 52 51 49 48 48
58 59 58 59 60 59 59 61 62 62 62 62 62 61 60 60 59 58 57 57 56 55 56 55 56 57 54 55 54 54 54 54 54 54 54 55 57 54 54 55 54 53 53 52 53 53 51 52 54 52 50 50 53 51 51 51 53 52 52 52 51 50
59 59 59 61 61 60 60 61 61 62 61 61 62 61 60 60 59 59 58 58 57 56 57 56 57 55 55 56 55 55 54 53 53 54 53 54 54 55 54 54 53 53 53 56 54 52 50 52 52 50 49 49 52 50 50 51 52 50 51 51 51 49
60 60 60 61 60 61 60 60 61 63 63 62 61 61 61 60 60 60 59 58 58 58 58 58 58 57 56 55 55 55 55 54 54 53 53 54 54 53 54 55 54 52 53 52 54 52 51 52 50 50 49 49 50 50 50 50 51 50 50 49 50 49

ECMWFFLT2_sfc_temp_015.txt.gz
Temp
72 72 72 71 72 72 73 74 74 74 74 74 74 74 73 74 74 74 73 73 71 69 69 70 71 69 74 70 72 73 74 74 74 73 73 73 73 73 73 73 73 72 72 72 71 71 71 71 71 71 71 71 71 67 66 66 66 66 66 66 66 64
70 71 71 71 72 72 73 73 71 72 72 73 74 74 73 72 74 70 74 71 68 70 68 67 69 74 69 71 72 73 74 74 73 73 73 73 73 73 73 73 73 72 71 71 71 63 63 65 69 71 71 69 64 64 65 65 65 65 65 64 64 66
70 71 71 71 71 72 71 71 71 71 72 74 74 73 70 72 68 69 68 68 68 68 67 68 68 71 70 72 71 74 73 73 73 73 73 73 72 72 72 72 72 72 71 71 64 61 60 61 61 69 68 64 61 64 65 64 65 65 65 64 64 70
71 71 71 70 70 70 70 70 70 71 70 70 70 70 69 69 69 67 67 67 66 67 67 67 74 75 74 70 70 73 73 73 73 73 73 71 72 72 72 73 72 72 67 65 62 61 61 61 63 60 60 61 62 63 65 64 64 65 65 68 65 71
72 71 71 70 71 70 70 71 71 70 69 69 68 68 69 68 68 67 66 66 66 67 66 65 64 67 67 67 66 66 68 67 67 66 71 66 66 67 68 65 65 65 62 63 63 62 61 63 63 62 61 61 63 62 64 65 64 64 65 66 66 72
71 71 71 70 70 71 71 70 70 70 70 69 68 68 68 67 67 67 66 66 66 65 65 64 64 64 66 65 65 65 65 65 65 66 67 66 65 65 64 64 64 63 63 63 63 62 62 63 63 63 62 63 63 64 64 64 64 64 64 65 67 72
70 70 70 70 70 70 69 70 70 70 69 68 67 67 68 67 67 66 66 66 65 64 64 64 64 63 64 64 65 65 65 65 64 65 67 66 66 65 65 64 64 63 62 62 63 63 62 62 62 63 63 63 63 64 65 64 64 64 65 65 68 72
70 69 69 70 69 69 69 69 70 71 69 69 67 66 66 66 66 65 66 65 66 64 64 63 63 63 64 64 65 64 64 64 65 65 65 66 65 65 65 64 64 63 64 63 64 64 63 63 62 62 63 62 62 63 65 64 65 66 65 65 66 71
70 70 69 69 69 69 69 69 69 68 68 71 66 66 66 66 66 65 65 65 67 64 63 63 63 63 63 63 64 64 64 64 64 64 64 64 65 64 64 64 63 63 62 62 62 63 63 64 62 62 61 63 62 62 63 64 64 65 65 65 66 68
70 69 69 69 68 68 68 69 68 68 68 70 65 65 65 66 65 65 65 65 66 64 64 63 63 63 63 63 63 63 63 63 64 63 64 65 64 64 64 63 63 63 63 62 62 63 64 64 64 61 61 62 62 64 64 64 64 65 64 65 65 66
70 70 68 68 67 67 68 67 68 67 68 66 66 66 65 65 65 65 65 65 65 65 63 63 62 62 63 63 62 62 62 63 63 63 63 64 64 64 64 64 64 63 63 63 64 63 64 63 62 63 62 64 63 63 64 64 64 64 65 64 63 64
69 69 68 68 69 67 67 67 68 66 67 66 66 65 65 64 66 64 64 64 65 64 65 63 63 63 63 63 62 62 62 63 63 63 63 63 64 64 64 64 65 64 63 63 63 63 63 64 61 63 63 63 63 64 64 64 64 64 64 63 63 64
69 69 67 67 67 66 66 67 66 66 66 67 66 65 65 64 64 64 64 64 64 64 64 63 62 63 64 62 62 62 62 64 64 62 62 63 64 64 64 64 63 65 63 62 62 61 63 61 63 63 64 65 64 64 64 65 66 65 63 63 63 64
68 67 67 66 66 65 65 65 66 65 67 66 65 65 65 64 64 64 64 63 63 64 63 62 63 62 62 62 62 62 61 62 63 62 62 62 63 62 63 63 64 63 65 63 61 61 62 62 61 62 63 63 63 62 63 63 64 64 63 63 64 63
68 66 67 66 66 65 65 65 65 65 64 64 65 65 64 64 64 64 64 63 63 64 64 63 63 62 61 61 61 61 61 63 63 63 62 62 62 61 62 62 62 63 61 62 62 62 62 62 62 62 62 62 63 63 63 63 62 62 64 63 62 63
67 66 65 66 65 65 65 64 64 65 63 63 64 64 63 63 63 63 63 63 63 64 64 63 63 62 62 61 62 61 62 62 63 62 63 63 62 62 61 61 61 62 61 61 63 61 62 61 61 62 62 62 62 63 63 63 64 64 63 62 64 63
65 65 64 65 63 63 63 63 63 63 62 62 61 61 62 62 63 63 62 62 62 64 63 63 63 63 62 61 61 62 62 62 63 64 62 62 62 62 63 62 61 63 64 61 61 61 61 61 61 61 61 61 61 62 62 62 63 62 64 62 62 63
65 65 64 63 63 63 63 63 62 62 64 61 60 61 61 62 63 62 62 61 62 63 63 62 62 62 61 63 63 62 62 63 63 62 62 62 62 62 61 62 61 61 62 62 61 61 60 61 62 62 61 61 61 61 62 62 62 63 62 63 63 62
65 63 62 62 63 62 62 61 60 61 60 60 60 61 61 61 61 61 60 61 62 62 64 62 62 63 61 63 63 61 61 62 62 62 62 61 61 61 61 60 62 60 61 61 61 61 61 61 62 62 62 61 61 61 61 62 62 60 61 62 63 64
63 62 61 61 62 60 61 60 60 60 60 60 59 61 60 60 60 60 61 62 62 61 63 63 62 61 62 63 61 62 62 62 62 62 61 61 60 61 61 60 61 62 61 61 61 61 61 61 60 60 59 59 59 61 61 60 59 60 60 60 62 62
61 62 63 62 61 61 59 59 59 59 58 57 60 59 59 59 59 59 61 61 61 62 62 62 63 61 61 65 62 61 61 61 62 61 61 61 61 61 60 60 60 60 60 59 59 59 60 60 59 58 56 56 57 61 62 60 58 58 59 59 60 61
61 61 62 63 62 61 59 60 59 58 57 57 58 58 58 58 59 60 60 60 61 61 61 61 63 61 62 62 62 62 61 61 62 61 61 61 61 62 61 61 60 59 59 59 58 60 59 59 57 54 56 54 54 56 59 57 59 60 60 58 58 59
61 62 61 62 61 60 58 60 60 57 59 57 57 57 58 58 60 58 57 58 58 58 60 60 61 62 62 62 62 61 61 61 61 62 61 61 61 60 60 60 59 59 58 59 59 59 58 59 57 56 54 55 52 53 55 53 55 59 61 59 57 59
61 61 61 61 61 59 60 59 59 59 57 57 59 59 57 56 57 57 58 57 56 56 57 59 60 61 60 60 60 60 61 61 61 62 62 62 61 61 60 59 59 59 59 57 56 56 59 58 56 56 55 53 51 50 50 54 52 55 59 59 58 59
61 61 60 60 60 60 60 59 59 59 59 59 59 57 57 58 55 60 57 56 56 56 57 57 58 59 61 59 58 58 59 59 59 60 61 61 61 62 61 59 59 58 57 58 57 58 58 59 59 58 55 52 51 51 49 53 52 54 56 57 57 58
60 60 59 58 61 61 61 60 59 58 56 55 56 56 56 57 57 55 56 56 56 56 57 56 56 57 58 59 57 57 58 59 58 59 59 59 60 62 62 61 60 59 58 59 58 57 56 58 59 59 57 55 54 52 50 54 54 54 53 56 56 57
61 59 59 59 61 62 60 60 61 60 59 58 57 54 52 53 54 55 55 56 55 55 56 57 55 55 56 57 56 55 56 56 57 58 60 58 58 59 61 62 61 60 59 59 58 55 57 56 57 58 58 58 59 56 56 55 53 51 52 52 52 54
61 60 59 60 61 62 61 59 58 57 57 56 57 56 54 54 54 56 55 55 55 54 55 55 56 56 56 58 57 56 56 57 57 58 59 56 56 56 58 58 58 58 59 59 57 57 55 55 56 55 57 56 56 57 56 56 53 54 48 49 52 52
60 59 58 60 61 61 62 60 59 58 57 57 56 56 55 55 55 54 54 53 54 54 54 54 55 56 56 58 58 56 56 56 57 57 58 57 56 56 56 55 55 55 55 55 55 55 56 54 53 54 56 56 55 55 56 56 56 52 49 46 48 48
59 59 59 59 61 60 61 61 59 58 58 56 56 55 54 54 53 53 54 53 53 53 54 54 54 54 55 56 56 56 56 57 56 57 57 56 55 55 54 54 53 54 54 54 53 54 54 52 52 54 55 55 55 53 53 52 51 52 51 51 51 52
59 58 58 59 60 60 60 61 60 59 58 57 56 56 55 53 52 52 54 53 53 52 53 53 53 53 54 54 55 56 56 55 56 58 57 56 55 54 53 53 53 54 53 53 52 52 53 52 52 52 52 53 52 51 51 51 51 50 49 49 49 50
58 57 57 58 58 59 60 59 59 59 59 58 58 57 56 55 53 53 51 52 52 52 52 52 52 53 53 53 55 53 54 54 54 54 54 54 54 53 53 53 52 52 51 51 52 53 51 51 51 51 51 51 50 52 51 51 50 49 50 50 48 47
57 57 58 59 58 58 57 58 59 59 59 59 58 58 57 55 53 53 51 51 51 52 51 53 53 53 52 52 54 54 53 54 53 53 53 53 52 52 52 52 51 51 50 50 49 50 50 48 50 50 48 48 49 51 50 48 49 49 48 47 48 45
56 58 59 59 60 61 60 59 60 60 59 59 58 58 57 56 54 53 53 52 52 52 52 52 51 53 52 52 53 54 53 51 51 51 52 51 51 51 52 52 52 51 51 49 50 50 49 48 48 48 48 49 49 49 48 49 49 50 48 47 46 47
56 57 59 60 60 58 58 58 59 60 60 60 59 59 58 58 56 54 52 53 52 51 52 51 51 52 52 51 51 51 51 52 51 51 52 52 54 52 52 53 52 51 51 50 50 50 49 50 51 49 48 49 50 48 48 48 49 50 51 51 48 47
58 59 60 60 58 57 57 58 58 59 60 60 60 60 59 58 56 55 55 54 53 51 52 52 52 52 52 52 52 52 52 51 51 52 52 52 52 52 51 51 50 51 51 52 51 50 48 49 49 48 48 47 50 48 47 48 49 48 48 49 50 45
58 59 60 59 58 59 58 58 58 60 60 60 59 59 59 58 57 56 55 55 54 53 53 53 53 53 52 52 52 52 52 51 51 51 52 52 52 51 51 52 51 50 51 49 52 50 49 50 47 48 47 48 48 49 48 48 49 49 48 47 47 46

ECMWFFLT2_sfc_temp_021.txt.gz
Temp
77 78 77 76 75 76 75 75 74 74 74 74 74 74 73 74 74 74 75 74 73 76 77 77 77 79 75 77 73 74 74 74 74 73 73 73 73 73 73 72 72 71 70 69 68 69 70 70 71 71 71 73 73 78 79 79 79 79 80 80 79 80
75 76 76 75 76 76 76 76 75 75 76 75 75 75 76 78 77 78 74 75 77 77 77 78 77 76 78 77 76 73 74 74 74 73 73 72 73 73 73 72 72 70 69 68 67 76 76 73 71 70 71 71 78 80 78 79 79 80 80 80 79 76
75 75 75 75 76 75 75 75 74 74 76 76 77 77 78 78 79 78 78 78 76 77 78 78 77 77 77 74 76 74 73 73 73 73 73 73 72 72 72 72 71 70 68 67 74 77 78 79 77 71 72 76 79 79 79 78 79 79 80 79 80 72
73 76 75 74 73 72 73 72 72 74 74 75 77 78 78 78 78 78 77 76 76 77 77 76 75 75 75 77 76 74 73 73 73 73 72 74 73 72 71 71 71 70 71 75 76 77 79 80 79 78 78 78 79 78 78 79 80 80 80 79 81 70
76 76 75 73 72 72 73 73 74 72 75 76 77 76 77 77 77 77 76 75 78 76 76 77 76 76 77 77 77 77 76 77 77 76 72 76 76 76 75 76 75 74 75 75 75 75 78 78 78 79 78 78 78 78 79 79 80 80 80 79 78 70
75 75 74 74 74 74 74 74 74 74 77 76 76 74 75 76 76 75 76 76 75 74 76 76 75 76 76 76 76 77 76 76 76 75 75 76 76 76 76 77 76 75 74 75 74 75 76 77 78 78 80 78 78 78 80 81 80 79 79 79 77 70
73 75 75 78 75 75 73 74 75 76 76 75 74 74 74 74 74 75 75 75 73 73 74 74 73 74 75 76 75 75 74 74 75 76 76 77 75 75 76 76 75 75 74 75 76 77 76 77 77 79 79 80 79 79 79 80 80 79 79 79 76 71
77 76 76 77 76 73 73 76 76 76 75 75 75 74 74 72 73 74 74 76 74 74 74 74 73 74 73 75 73 74 74 74 75 75 76 76 76 76 76 76 75 76 76 77 78 77 77 78 76 76 78 79 79 79 79 80 79 78 79 78 78 73
77 77 76 74 75 75 75 76 75 76 76 75 75 74 73 73 73 73 74 76 76 74 74 74 75 75 74 73 72 73 72 74 75 74 75 74 76 75 76 76 75 76 76 77 77 76 78 78 77 77 78 79 78 78 78 78 78 78 78 78 78 76
78 78 77 77 76 75 76 76 76 75 75 76 75 74 74 73 73 72 73 75 76 74 73 74 73 74 75 72 72 72 73 73 74 75 76 75 76 75 75 76 76 76 79 77 77 76 77 78 78 77 78 79 77 77 77 78 77 78 78 78 77 77
78 76 78 78 76 76 76 76 77 76 76 76 74 72 72 72 71 72 73 73 74 74 73 73 73 73 74 73 73 73 73 73 73 75 75 75 75 76 76 75 75 76 77 78 77 78 78 78 78 79 77 78 76 76 77 77 78 78 79 78 78 77
78 76 75 78 76 76 75 76 77 77 75 75 73 71 71 71 72 72 72 72 71 72 73 72 72 71 71 71 71 72 73 73 73 74 74 75 74 76 76 76 76 76 76 77 77 77 77 78 78 80 80 78 78 77 78 78 79 78 79 78 77 76
77 75 75 75 76 76 75 76 76 75 76 74 73 71 70 68 68 68 67 69 70 70 69 70 68 68 66 67 69 70 70 71 72 72 72 73 74 74 75 75 75 76 76 77 76 75 76 76 77 77 78 78 78 79 79 78 77 77 78 77 77 77
75 76 75 76 75 75 75 76 76 76 75 74 72 70 70 66 68 66 66 67 68 68 68 67 68 67 66 66 65 66 67 69 70 70 70 72 74 75 75 75 76 76 75 76 75 75 76 74 75 77 76 77 77 75 76 78 77 77 76 77 78 77
74 75 74 74 74 74 74 74 75 75 74 73 72 71 68 65 67 68 67 66 66 67 67 67 68 67 66 66 66 66 68 70 70 71 71 72 73 75 75 75 76 76 75 74 73 73 73 73 72 74 74 75 76 77 76 77 77 78 78 77 77 78
73 73 72 72 72 72 71 71 72 73 72 72 72 71 70 68 67 66 67 69 68 68 66 68 67 66 65 66 68 70 70 70 71 71 72 72 74 74 74 74 75 75 73 73 73 70 71 69 68 69 72 74 75 76 77 77 76 79 79 78 79 77
73 72 71 70 71 70 70 70 70 71 71 70 70 70 70 70 69 67 67 68 69 69 68 67 68 67 66 68 70 71 72 71 71 71 70 71 72 73 73 73 73 74 75 72 73 71 69 69 68 68 69 70 71 72 73 74 75 76 78 75 75 77
73 72 70 69 69 69 68 69 69 70 69 69 68 68 68 70 69 68 68 68 68 70 70 69 69 67 66 68 71 71 70 70 71 70 70 70 71 70 72 72 71 72 74 74 72 71 68 69 69 70 70 69 69 70 70 72 72 71 74 74 73 75
71 70 69 68 68 68 68 68 68 67 67 67 67 67 68 69 69 69 68 68 70 70 71 70 69 67 66 69 69 69 69 69 70 70 69 69 68 69 70 71 71 71 71 73 73 70 67 67 69 70 70 67 68 69 70 71 71 71 71 71 72 72
70 69 69 68 68 68 68 67 66 67 68 68 68 68 68 69 69 71 71 71 71 70 71 71 70 70 68 68 69 69 68 68 69 69 69 69 68 68 68 70 70 70 69 70 72 70 68 68 68 68 66 68 69 69 69 70 71 72 72 72 71 71
70 69 68 68 68 68 67 67 68 70 70 70 70 68 68 69 70 71 71 73 72 72 71 71 71 69 69 69 69 68 68 67 67 68 68 68 68 68 69 70 69 70 69 68 67 68 67 69 67 66 67 67 68 70 69 70 69 71 72 73 74 73
70 70 70 70 70 70 71 71 71 71 71 71 71 70 70 70 70 69 69 71 71 72 72 71 71 70 69 67 66 68 67 66 65 67 68 68 68 67 67 68 69 67 69 68 65 66 66 68 67 65 63 64 67 68 69 70 71 71 70 72 73 72
71 71 71 71 72 71 71 70 71 69 71 70 71 71 73 71 71 71 69 70 72 71 72 73 72 71 69 68 68 68 68 68 67 67 67 67 67 67 67 68 69 67 65 67 64 65 66 67 63 65 65 65 62 63 66 68 69 69 69 70 72 74
69 70 70 71 72 70 69 68 69 69 69 71 70 69 69 69 70 70 69 69 70 70 72 73 73 72 70 69 68 69 69 69 68 67 67 67 66 67 67 67 68 69 68 64 63 61 64 65 64 63 60 63 61 62 61 63 65 67 69 71 72 73
70 69 70 70 70 69 68 68 68 68 69 67 69 70 70 70 70 70 70 70 69 69 71 72 72 71 70 68 69 70 69 68 68 69 70 69 68 68 68 68 69 68 69 68 64 62 63 65 65 66 66 62 60 60 60 61 64 64 68 71 72 74
70 69 70 70 69 70 70 69 68 68 67 67 66 67 68 67 69 70 71 67 68 69 71 71 71 71 71 70 68 68 68 68 69 69 69 70 70 68 67 69 70 70 68 69 67 64 63 64 66 66 67 67 67 65 60 61 64 60 67 68 69 72
69 69 69 69 69 70 70 70 70 71 71 70 68 67 67 68 69 68 68 67 68 67 69 70 70 71 71 71 70 68 68 69 69 68 69 69 68 68 70 72 71 70 70 68 68 65 65 64 65 65 66 67 66 66 67 64 62 63 60 64 67 66
70 69 69 69 69 70 70 70 70 70 70 70 70 66 66 66 66 67 67 67 68 68 68 70 69 70 70 71 71 70 68 68 68 69 70 70 69 70 70 71 70 70 70 69 68 67 65 66 66 63 65 66 65 67 68 67 70 68 65 60 61 67
69 69 68 68 69 70 70 70 70 70 68 68 68 67 68 68 67 67 66 66 67 68 68 67 69 69 69 70 70 70 69 70 70 69 70 69 68 69 69 68 68 69 69 69 69 69 68 67 68 65 64 65 67 68 67 68 67 69 67 63 63 63
68 68 67 67 68 68 69 69 69 69 67 66 67 67 68 66 66 67 67 65 67 68 68 68 67 68 68 70 69 70 70 70 71 70 70 69 67 67 67 67 68 69 69 68 69 69 68 69 70 68 69 68 66 66 67 67 68 68 69 69 64 64
67 67 67 67 68 67 68 69 69 68 67 66 66 66 65 65 66 66 67 66 67 67 68 68 68 67 67 68 68 69 68 68 68 68 68 68 68 70 69 67 67 67 67 67 68 67 66 66 67 66 67 69 69 68 67 66 67 68 68 65 65 64
65 66 67 67 67 67 68 68 68 68 67 67 67 67 66 65 66 66 66 66 66 67 67 67 67 68 67 67 67 67 67 67 68 67 67 68 68 69 68 67 67 67 66 66 67 67 67 65 66 67 67 69 69 70 70 70 70 70 69 68 67 65
65 66 66 66 66 66 66 66 67 67 67 67 68 68 68 66 66 67 67 66 67 67 67 67 67 67 66 66 67 67 67 67 67 67 67 67 67 67 67 68 67 66 67 67 68 68 67 66 67 68 67 68 70 71 69 69 70 70 69 70 68 65
66 65 65 65 65 65 65 65 66 67 67 67 66 67 67 66 65 67 68 68 68 68 68 67 67 67 66 67 67 67 66 66 66 66 66 66 66 66 67 70 68 67 66 66 67 66 66 65 66 66 68 68 69 69 68 68 69 69 68 68 67 65
63 62 64 64 64 64 64 65 65 66 66 67 66 66 66 65 64 65 66 67 67 68 68 67 67 66 65 66 65 66 66 66 65 65 65 65 65 66 66 68 68 65 66 66 66 66 66 65 65 66 66 67 66 67 68 69 70 70 71 69 68 67
61 62 63 64 64 64 64 62 62 64 64 65 65 65 63 64 64 66 66 67 66 66 67 66 66 66 65 66 65 66 66 65 65 65 65 65 66 67 66 67 66 66 64 66 65 65 65 65 64 64 65 66 67 67 67 69 70 69 70 69 69 68
62 61 61 63 64 64 65 63 62 63 62 62 63 64 64 64 64 65 65 65 66 66 66 67 66 66 65 66 66 66 67 65 65 65 65 65 65 65 65 66 66 65 65 66 66 66 66 66 64 65 66 66 67 67 67 67 68 68 67 68 69 69

ECMWFFLT2_sfc_temp_024.txt.gz
Temp
80 77 81 80 77 75 75 74 74 74 74 74 73 73 74 74 74 75 75 74 74 79 80 79 78 81 75 79 74 74 74 74 74 74 74 74 73 73 73 72 72 71 71 71 72 71 71 72 72 71 72 73 73 80 85 85 86 86 89 87 86 83
83 80 75 74 73 78 74 73 74 75 75 74 74 75 76 78 78 79 75 77 81 81 81 81 81 78 81 78 77 74 74 74 74 74 74 73 73 73 73 72 71 71 70 71 69 80 78 73 70 71 73 72 78 85 84 85 85 88 87 87 85 76
78 75 72 73 76 72 74 72 75 74 73 74 76 79 80 81 82 80 81 83 81 81 83 83 81 79 82 76 77 74 74 74 74 74 73 73 73 73 72 72 70 70 71 68 78 83 84 85 83 71 72 78 84 86 85 84 85 86 88 86 84 73
75 75 72 77 72 73 71 76 74 74 72 73 78 81 81 81 81 82 81 81 81 82 82 82 78 77 77 79 77 74 73 73 73 73 73 75 73 73 72 71 71 71 72 79 84 84 86 87 86 84 83 84 85 84 84 84 87 87 86 87 84 72
80 75 77 75 77 76 75 75 75 73 76 75 78 80 80 81 81 81 81 81 85 82 82 82 81 81 83 82 79 79 77 77 79 79 73 80 78 78 76 80 79 78 83 82 83 83 84 85 84 85 84 84 83 84 85 85 87 88 86 84 78 72
81 79 76 77 79 77 74 78 77 76 74 73 76 78 80 80 80 80 82 81 81 80 81 80 79 80 81 81 81 83 82 82 83 82 80 83 84 81 78 79 82 82 82 82 81 82 83 84 84 85 86 84 84 83 86 87 87 85 85 83 77 72
77 77 78 80 79 74 73 71 71 72 75 72 69 74 76 79 79 79 79 80 79 79 79 78 77 78 80 81 82 82 83 82 82 82 82 83 81 81 83 82 82 81 82 82 83 82 83 83 84 85 84 85 85 85 85 86 86 86 85 83 77 72
78 78 79 81 76 75 76 74 71 72 74 73 73 72 73 77 78 78 78 79 78 79 79 77 75 78 79 81 81 81 82 82 82 83 83 83 81 81 81 81 81 82 82 83 83 82 83 84 83 84 84 83 84 84 84 85 85 84 84 83 80 73
79 80 80 80 79 77 72 71 71 72 73 71 72 69 73 77 78 79 79 80 80 77 77 75 74 76 81 79 79 80 81 81 81 83 82 81 81 79 80 81 81 81 82 82 82 82 83 83 83 83 84 84 84 84 84 84 84 84 85 84 81 76
82 83 81 80 73 71 75 72 71 69 72 71 72 73 76 79 80 79 80 79 79 78 74 71 72 73 81 78 77 77 77 78 79 80 80 79 80 80 80 81 81 81 83 81 82 82 82 83 85 83 84 84 83 84 84 85 85 85 85 83 81 77
84 81 81 81 72 72 75 74 72 71 73 73 80 78 77 78 78 78 78 78 73 71 69 69 69 68 68 73 76 71 70 74 75 70 74 75 77 74 77 80 81 82 81 82 82 82 83 83 84 85 83 85 83 83 84 84 85 86 85 84 83 80
82 79 80 83 79 73 74 72 73 77 83 81 79 79 78 78 78 78 71 68 70 70 69 68 66 67 69 71 68 68 68 70 70 68 69 67 67 70 71 78 80 81 81 82 81 82 83 84 84 86 85 84 84 83 84 83 84 84 84 84 83 82
79 77 79 79 81 79 77 81 83 83 82 80 80 79 78 76 76 69 68 70 68 68 67 67 67 69 70 70 74 72 71 71 71 69 69 69 69 69 71 75 78 80 80 81 81 81 81 80 83 84 85 86 85 86 87 86 83 83 84 83 83 83
77 73 77 80 79 82 82 82 82 82 81 80 80 78 75 75 74 71 70 71 70 68 68 67 67 67 70 71 72 73 73 72 71 68 70 70 70 68 70 73 79 80 79 80 80 80 79 77 80 83 84 86 85 84 85 87 83 82 82 81 83 83
76 72 78 79 79 81 82 83 83 81 80 79 78 76 73 73 74 75 74 69 71 69 70 71 70 68 70 73 73 73 73 72 69 72 73 72 69 72 71 77 79 81 80 80 81 81 81 80 78 79 80 80 83 84 83 84 83 83 83 82 82 82
78 76 76 79 80 80 81 80 81 79 79 78 77 76 73 73 74 74 75 73 70 71 71 70 70 71 70 72 74 74 76 75 75 74 74 71 70 76 75 76 78 78 77 79 80 79 79 78 78 79 79 78 79 80 81 82 80 82 83 83 83 83
77 78 77 79 79 79 78 79 79 78 78 78 77 77 75 74 74 75 75 76 74 74 74 73 73 73 72 72 73 74 76 75 74 73 72 71 69 70 75 75 74 77 78 78 80 79 77 77 77 76 77 76 76 74 77 78 80 80 83 76 73 71
77 77 78 78 78 77 77 77 78 77 76 76 75 74 75 77 76 76 78 76 74 75 75 76 75 73 73 73 74 73 72 73 74 74 74 72 71 73 73 72 74 76 78 78 79 79 77 77 77 77 76 75 73 74 76 77 77 77 77 70 72 72
74 76 77 76 75 74 73 73 74 75 74 74 75 76 78 78 76 76 77 76 75 75 76 75 75 75 74 74 75 73 71 71 73 73 73 74 72 73 71 73 74 74 76 79 79 78 77 76 76 76 76 73 74 73 76 76 75 76 73 74 73 73
71 75 76 74 74 73 72 73 74 75 77 77 78 78 79 79 78 78 78 78 77 75 76 75 76 75 74 73 73 72 71 72 71 69 70 71 74 72 69 70 73 74 74 76 78 78 77 76 75 73 72 74 75 74 74 75 75 77 73 72 75 76
71 74 74 73 72 72 73 74 75 77 77 78 79 78 78 79 80 79 78 79 78 78 77 76 76 76 74 74 74 73 72 72 72 71 70 68 72 71 69 71 73 74 73 73 75 77 76 77 73 72 73 73 73 76 74 75 75 78 79 79 80 78
73 73 74 75 74 73 76 78 78 79 79 79 79 79 78 79 77 77 77 77 77 78 77 77 77 76 75 74 73 73 72 72 71 72 72 72 73 72 72 72 73 72 75 74 73 75 75 75 72 71 70 70 72 74 75 75 77 78 79 79 79 78
74 74 75 75 75 76 78 78 79 79 80 80 82 81 82 80 80 80 77 78 78 77 78 78 78 76 75 74 74 73 73 73 72 73 72 72 72 71 72 71 72 72 72 73 72 73 73 70 73 73 73 70 66 66 70 72 74 75 77 77 79 80
75 77 76 76 78 79 79 78 79 78 79 80 78 77 77 78 79 79 78 78 79 77 78 78 79 79 78 76 75 76 76 75 74 73 73 72 71 71 71 71 71 71 72 69 71 71 73 73 73 72 67 65 69 66 59 66 70 73 77 77 78 80
76 78 78 77 79 79 77 76 76 76 77 76 77 77 77 77 77 78 78 78 78 78 79 78 78 78 79 77 77 77 77 76 75 74 76 75 73 72 73 72 72 71 72 71 70 68 70 72 72 75 71 70 67 64 59 66 69 69 75 77 78 80
77 79 78 78 78 78 77 76 75 74 73 74 73 74 74 74 75 76 78 77 79 79 78 78 79 79 79 78 76 76 76 76 76 76 76 76 77 76 74 73 73 73 70 72 71 70 69 71 72 73 72 72 66 62 65 69 71 63 72 73 76 80
78 79 79 78 78 77 76 77 76 76 76 75 74 75 77 77 76 78 77 77 77 77 78 78 78 79 78 78 77 76 75 76 77 76 76 76 75 75 77 78 76 75 73 70 71 69 68 70 72 72 73 73 73 72 73 70 67 68 65 69 73 74
78 79 78 78 77 78 77 77 76 76 77 77 76 74 74 75 76 77 76 76 77 77 77 78 77 78 78 78 77 76 76 76 76 77 78 77 76 76 76 76 75 75 74 72 69 68 68 72 70 70 72 72 71 73 74 74 75 70 69 65 66 72
77 78 78 77 77 78 78 77 77 77 76 77 76 75 76 76 76 76 74 75 76 78 77 76 78 77 77 78 77 77 76 76 76 76 78 77 76 76 74 74 73 72 71 71 71 70 68 70 72 71 71 71 73 74 74 74 74 75 71 67 66 65
76 77 77 77 77 77 77 77 77 76 75 75 75 75 76 74 74 75 74 74 75 75 77 76 76 77 77 78 77 77 77 75 75 76 76 76 75 74 74 74 73 73 72 71 72 72 72 72 74 73 74 73 72 73 73 72 72 73 74 73 67 67
76 77 77 77 77 76 77 78 77 76 75 74 74 74 73 72 74 74 73 74 75 75 76 76 76 75 75 76 76 77 75 75 75 75 76 76 75 76 74 74 74 73 73 72 73 73 72 72 72 71 72 74 74 74 72 71 71 73 72 70 69 68
74 74 77 77 76 76 77 77 77 76 76 75 74 74 73 72 73 73 73 73 75 75 75 75 75 75 74 75 76 75 75 75 75 75 75 76 76 76 76 75 74 74 74 73 73 73 72 71 71 73 72 73 74 75 75 74 75 74 73 72 71 70
71 74 74 75 75 75 75 76 76 76 76 76 75 75 74 73 74 74 74 74 74 74 74 74 74 74 74 74 75 74 75 75 74 74 74 76 75 75 76 76 75 74 73 73 73 73 73 72 73 72 72 71 75 76 75 76 76 75 75 75 72 70
67 71 73 75 74 74 74 75 76 76 76 77 75 75 75 74 74 75 75 74 74 74 74 73 74 73 74 75 75 74 74 73 74 74 74 74 74 75 76 77 75 73 73 74 74 73 73 72 73 74 75 75 75 76 76 76 76 76 74 74 73 72
63 63 68 72 73 73 75 75 75 76 76 77 76 76 76 76 75 75 75 75 75 75 75 75 74 74 74 73 73 74 73 73 73 73 73 73 74 74 75 77 75 73 74 75 74 74 73 73 73 74 74 75 74 75 76 78 78 77 79 77 76 74
62 62 63 68 71 72 73 73 74 74 75 76 76 76 76 75 75 74 74 75 74 74 75 75 74 74 73 74 73 73 73 73 73 73 73 74 74 75 74 74 74 73 73 75 73 72 73 73 72 72 73 74 75 75 75 77 78 77 78 77 77 76
62 63 65 67 70 71 71 70 71 73 74 74 73 74 74 73 73 74 75 75 74 74 74 74 73 74 73 73 73 73 73 72 72 73 73 73 73 74 73 74 73 72 72 73 73 73 73 73 72 73 73 73 74 74 74 75 76 75 75 76 77 77

ECMWFFLT2_sfc_temp_027.txt.gz
Temp
74 76 73 72 73 73 74 73 73 75 74 74 74 74 74 74 74 75 75 74 74 78 78 77 77 79 75 77 74 74 75 74 74 74 74 74 73 73 73 73 72 72 72 72 73 72 72 73 72 72 74 73 73 78 83 86 86 86 86 87 82 80
73 75 73 73 73 76 76 75 75 76 76 75 75 75 75 76 77 77 75 75 76 77 79 79 79 78 78 77 76 74 74 74 74 74 74 73 73 73 73 73 72 73 72 72 72 78 78 74 72 73 72 73 76 82 83 85 86 87 88 82 81 76
76 75 73 74 76 77 76 75 72 73 74 75 76 76 77 78 78 77 77 77 77 76 78 78 77 78 78 76 76 74 74 74 74 74 74 73 73 73 72 72 72 72 73 72 76 81 84 84 81 73 74 76 81 83 85 85 86 86 84 82 79 74
77 76 78 78 78 78 77 75 72 70 73 76 76 78 79 78 74 73 75 74 74 76 75 74 76 76 77 78 76 74 73 74 73 74 74 74 73 73 72 72 72 73 73 78 80 84 87 86 85 83 82 83 84 84 84 85 88 86 85 83 81 73
76 79 79 77 76 77 76 75 70 70 75 77 77 76 73 70 70 70 72 73 76 72 73 74 74 76 77 77 78 77 76 77 77 77 73 77 76 75 75 77 77 76 80 82 85 85 86 86 85 85 84 84 84 84 84 86 87 85 82 79 76 73
76 75 76 77 75 75 76 71 73 74 74 76 74 72 72 72 70 69 69 72 72 72 71 73 74 69 69 72 75 78 78 79 79 79 77 79 80 74 78 79 80 80 81 84 84 85 85 85 85 85 85 83 84 83 86 88 87 83 82 78 75 73
73 71 76 76 75 75 74 74 74 73 74 76 76 77 76 73 72 70 70 69 70 70 68 71 72 70 69 70 70 72 73 76 77 79 81 78 78 78 78 73 76 77 81 83 85 85 85 86 86 87 85 86 84 84 86 87 85 82 81 79 76 73
77 76 74 72 73 74 73 73 75 76 78 76 78 77 76 75 73 70 70 69 68 68 68 69 72 73 72 72 70 69 69 71 74 75 83 74 74 78 75 75 75 79 82 84 85 84 86 87 84 86 85 85 84 85 85 87 86 85 80 79 78 73
75 77 74 75 75 76 76 76 76 78 78 76 78 78 78 76 74 73 73 71 68 69 70 70 72 73 73 73 70 71 71 69 69 69 69 68 68 68 67 70 73 78 83 83 84 83 86 86 83 84 85 85 84 84 84 85 84 85 80 80 79 75
72 77 77 78 76 76 75 75 77 77 78 77 78 78 76 76 74 72 70 70 72 71 71 72 73 75 75 72 72 71 73 72 70 69 69 70 69 68 67 67 69 76 82 83 83 83 84 84 86 85 83 84 85 86 84 85 84 86 83 78 79 75
73 75 78 76 75 75 75 76 78 78 78 78 78 76 76 74 70 69 69 70 72 73 74 74 75 75 75 75 73 72 72 74 74 73 71 70 70 70 69 68 67 70 77 81 82 84 83 83 85 86 85 86 85 86 83 85 86 86 85 78 78 78
75 75 75 76 75 76 77 79 79 78 76 75 74 74 73 71 68 68 71 73 73 73 74 76 75 75 76 75 75 75 74 74 73 74 73 72 71 71 71 71 71 71 71 75 80 82 83 84 84 85 86 86 87 86 85 86 85 86 86 81 80 78
74 76 74 75 77 78 78 78 76 75 74 74 73 72 71 71 70 73 74 75 75 75 75 74 74 75 76 77 77 74 75 75 74 74 73 73 73 73 73 74 75 75 70 68 74 80 84 81 83 84 85 87 86 87 87 87 85 85 85 83 78 79
73 73 75 73 75 77 76 75 73 71 74 75 73 71 69 74 75 75 75 76 76 76 76 76 75 74 76 76 76 74 72 72 73 74 72 71 72 72 72 72 73 74 70 69 69 78 80 81 83 85 85 86 84 84 86 87 85 83 82 78 72 69
75 72 72 73 75 73 71 73 72 70 72 73 71 73 72 74 78 78 77 77 77 77 77 77 76 75 76 77 76 76 73 67 73 73 71 70 71 71 71 71 69 69 69 68 67 73 81 79 81 81 82 82 83 86 85 83 82 83 81 75 71 72
69 68 72 73 73 71 71 73 72 70 71 70 76 80 76 76 79 79 78 78 78 77 77 77 76 75 74 76 77 76 74 67 71 72 70 69 70 69 69 68 67 67 66 66 67 74 74 78 79 80 81 81 81 79 76 74 71 69 75 77 77 72
68 66 69 70 71 69 69 69 70 72 71 77 79 78 79 79 80 79 80 79 78 77 77 77 76 75 74 75 76 76 70 66 69 70 70 69 71 70 70 69 65 65 67 65 67 73 76 79 78 78 79 79 79 78 75 71 70 68 70 71 73 74
68 69 69 69 68 68 69 70 71 79 79 80 80 82 82 82 81 81 80 80 78 78 77 77 76 76 74 77 78 74 68 68 68 68 69 68 69 70 70 69 67 66 66 66 65 72 74 78 78 77 77 77 77 75 73 73 71 71 71 73 74 76
69 69 67 67 68 69 73 77 79 78 78 79 81 82 82 82 82 81 81 79 80 79 78 77 76 75 74 74 73 71 73 69 68 69 68 67 65 66 67 68 68 67 67 66 67 72 74 76 77 78 78 75 75 76 74 73 73 75 75 74 74 76
70 70 67 66 66 66 74 77 77 80 80 81 81 81 82 82 81 81 81 80 80 79 80 78 77 77 74 72 73 73 71 71 68 71 70 68 65 65 65 66 67 67 66 67 68 69 74 75 72 73 72 75 76 76 71 69 73 73 74 75 75 75
71 70 67 63 64 69 76 77 78 79 78 80 81 81 81 82 82 81 82 83 81 80 79 78 78 78 76 75 76 74 72 71 69 71 70 69 69 68 68 70 70 69 67 66 69 73 74 73 70 67 71 73 73 75 70 70 72 73 74 75 75 73
71 70 68 66 68 75 78 80 79 80 81 81 81 81 79 80 79 80 80 80 80 81 79 79 78 77 76 76 72 68 72 73 72 73 73 73 72 70 69 71 71 70 71 67 67 72 69 71 66 67 67 67 67 72 72 72 71 73 76 75 73 73
70 69 68 67 68 75 80 81 80 81 82 82 84 83 83 81 82 82 79 80 80 80 80 80 79 78 77 77 76 75 73 72 73 73 71 70 69 67 67 69 71 69 68 70 71 72 71 70 63 66 65 64 62 62 66 67 71 76 78 79 78 77
70 67 65 65 70 78 79 80 81 81 82 81 79 80 80 81 81 81 80 81 81 80 80 81 82 82 80 78 76 77 76 76 74 72 69 68 68 68 68 69 70 70 67 68 72 73 73 70 70 66 60 59 61 64 62 63 65 70 78 77 78 79
70 66 65 65 70 78 77 78 79 79 80 78 79 79 79 79 79 79 79 79 79 80 81 80 80 81 82 79 78 77 76 75 75 75 74 68 69 70 70 70 70 68 72 71 72 72 74 74 71 72 67 61 60 59 60 63 64 65 68 66 72 74
71 67 66 64 70 76 77 77 76 75 74 75 74 75 75 75 77 78 79 79 81 81 81 80 81 81 81 79 78 79 78 78 76 76 76 75 75 76 76 76 76 74 69 73 69 71 71 73 70 69 71 69 68 64 60 64 63 59 65 67 69 74
69 66 66 66 76 78 78 77 77 77 77 76 75 76 78 78 78 79 79 79 79 79 81 79 79 80 79 79 78 78 78 79 79 77 77 77 76 76 78 79 78 77 76 75 73 70 70 71 73 71 68 69 69 70 70 67 63 64 60 68 73 73
68 67 66 71 76 79 77 77 78 78 78 78 76 75 77 77 78 79 78 78 79 79 80 80 79 80 80 79 79 78 78 78 79 80 80 78 76 76 77 78 77 77 74 75 74 72 71 71 68 70 73 68 66 70 71 71 68 63 63 62 66 72
65 65 66 72 77 75 77 78 78 78 78 78 77 77 78 78 78 77 76 78 78 79 79 79 80 79 79 79 79 78 78 78 77 78 81 78 77 78 76 75 74 74 74 74 74 73 72 73 73 69 68 69 68 70 68 70 66 63 59 63 64 66
65 64 66 72 75 74 78 79 78 78 77 76 77 78 78 76 76 76 76 76 77 77 78 77 77 79 79 80 78 79 78 77 77 78 78 77 76 76 75 75 74 74 73 72 73 72 71 71 70 68 71 67 68 66 70 66 63 62 62 70 65 66
63 64 65 70 71 75 75 78 78 78 77 76 76 76 75 74 76 75 75 75 76 77 78 77 77 76 77 78 77 78 77 77 77 77 78 78 76 77 75 75 75 74 73 72 73 70 68 69 67 66 69 71 68 69 67 66 65 66 63 67 67 67
65 64 64 66 64 67 75 76 78 78 77 76 76 75 74 74 75 75 75 75 76 77 76 76 76 76 76 77 77 76 76 76 76 76 76 77 77 78 77 76 75 74 74 73 74 72 70 66 70 71 69 68 68 66 68 66 70 67 62 67 71 70
63 65 65 64 62 60 65 76 77 78 77 77 77 76 76 75 76 76 76 76 75 75 76 75 75 75 75 76 76 76 76 75 75 75 76 77 77 77 77 76 75 74 74 74 73 72 71 72 72 71 71 71 72 75 74 73 70 75 74 74 73 71
65 66 66 64 63 62 62 71 76 77 77 78 77 76 76 76 76 77 77 76 76 76 76 75 75 74 75 76 76 76 75 75 76 76 76 75 76 77 77 77 75 74 74 74 73 73 72 70 72 73 75 74 75 74 75 76 75 75 74 73 73 72
66 67 67 66 66 64 65 71 76 77 78 78 77 77 77 77 77 77 77 76 77 77 76 76 75 75 75 75 75 76 76 75 75 74 75 75 76 76 76 77 76 74 75 75 74 73 73 73 73 74 74 75 75 76 77 79 79 78 79 76 75 75
68 68 68 68 68 69 70 72 74 75 77 78 78 78 78 77 77 77 77 77 76 77 77 76 75 75 75 75 74 74 75 74 75 75 75 76 76 76 76 75 75 74 74 76 74 74 74 74 73 73 75 76 77 76 78 79 79 78 80 79 78 77
68 68 69 70 70 72 72 72 73 75 77 76 77 77 76 76 76 76 76 76 76 76 76 75 74 75 74 75 75 75 74 74 74 74 74 75 75 75 76 75 74 74 73 75 74 74 74 74 74 74 74 75 75 76 76 76 77 77 77 78 79 79

ECMWFFLT2_sfc_temp_030.txt.gz
Temp
72 73 73 73 72 73 73 75 74 75 75 74 74 74 74 74 75 75 74 72 70 70 73 74 74 75 75 74 74 74 75 75 74 74 74 74 73 73 73 73 72 73 72 73 73 73 73 73 74 73 74 74 74 72 75 78 79 79 77 76 74 74
70 73 73 72 71 71 71 73 73 74 74 74 75 75 75 75 75 72 70 69 69 69 69 72 73 76 75 75 75 74 75 74 74 74 74 73 74 73 73 73 73 73 73 73 73 71 72 73 74 73 74 73 71 73 76 78 78 77 77 75 74 73
71 73 74 71 70 70 70 71 73 74 74 75 76 76 74 73 72 71 69 70 69 68 70 70 72 76 76 75 74 74 74 74 74 74 73 73 73 73 73 73 73 73 73 72 72 72 74 74 72 74 73 72 72 74 78 77 77 77 76 75 73 74
72 73 73 70 69 69 70 71 73 74 74 75 75 75 72 71 70 69 68 69 68 69 69 68 75 77 77 74 73 74 74 74 74 74 73 73 73 73 73 73 73 73 73 74 73 74 77 77 75 72 72 72 74 77 78 78 78 77 75 76 74 74
73 74 73 70 70 70 69 71 73 73 74 75 75 72 71 70 69 69 70 69 69 69 69 70 71 72 72 74 73 73 73 73 73 72 73 72 70 71 72 73 73 72 72 74 76 76 77 78 76 75 74 75 76 77 78 77 78 77 75 73 72 73
74 73 73 70 72 71 71 72 72 73 74 74 74 72 72 70 69 69 69 69 69 68 69 70 70 70 70 70 73 73 73 73 72 70 72 70 69 69 71 72 74 75 73 75 76 77 79 78 77 76 77 76 77 76 78 77 77 74 73 72 72 73
71 72 71 72 73 73 73 73 73 74 73 72 69 69 72 71 70 70 69 70 68 68 68 69 69 69 69 70 70 70 70 70 69 67 69 68 69 69 70 71 72 73 74 76 79 78 79 80 78 80 77 78 77 78 77 77 76 74 73 72 72 73
72 70 71 73 73 74 74 74 73 74 69 68 68 69 70 71 71 70 71 70 70 68 68 69 69 69 69 70 69 69 69 69 69 68 68 68 68 68 70 71 72 75 75 77 79 79 78 80 79 78 79 78 78 78 77 77 76 75 73 71 72 73
74 71 73 72 74 72 73 74 72 70 67 69 68 68 69 72 71 72 71 71 70 69 69 70 71 71 71 70 69 69 69 69 69 69 69 69 70 69 68 69 69 69 72 73 75 76 78 79 79 78 78 76 77 78 72 70 74 75 74 72 72 72
74 74 74 76 75 74 73 72 70 69 68 69 67 68 71 72 72 73 72 71 72 71 70 71 71 71 72 70 70 71 70 69 69 69 70 70 69 69 68 68 69 70 71 73 73 76 75 77 79 78 78 79 75 73 67 69 72 75 75 73 71 71
74 75 75 76 74 74 73 70 69 69 69 68 68 70 73 73 73 73 72 72 73 72 72 72 72 71 71 71 70 70 70 71 70 70 71 70 69 70 69 68 68 69 70 70 69 71 75 76 78 79 77 79 73 69 72 70 71 73 75 72 72 71
75 75 75 75 74 74 73 72 68 69 69 70 72 73 73 72 71 71 72 71 71 72 72 72 72 72 71 70 69 70 72 71 70 71 72 70 70 70 70 70 70 71 69 68 67 69 71 73 74 78 79 78 74 69 71 68 67 68 69 74 73 72
73 74 73 72 73 73 74 73 69 68 71 73 74 73 72 71 70 71 72 72 72 73 73 72 71 71 71 69 69 68 70 71 72 70 71 72 73 71 71 70 70 71 68 67 68 68 72 72 73 75 76 74 72 74 71 67 67 68 68 73 73 72
74 73 73 72 72 72 72 72 72 72 74 73 72 71 71 71 72 73 73 74 73 73 73 73 73 72 69 66 67 68 68 70 71 71 70 70 71 71 70 71 71 71 69 67 67 68 68 68 67 67 70 73 68 70 71 68 68 68 68 69 70 71
73 72 72 72 71 70 71 74 73 73 73 73 72 70 71 73 73 74 75 74 74 73 74 73 73 72 70 68 67 69 70 70 71 71 70 69 69 70 69 70 69 68 67 67 67 66 67 67 66 65 66 68 70 73 69 67 69 71 71 69 68 70
72 72 73 73 72 71 72 72 72 72 71 71 70 71 71 73 75 74 75 74 75 74 74 74 74 74 71 69 69 69 68 68 71 70 70 69 70 69 68 68 68 67 66 66 66 65 65 65 66 65 65 65 68 72 69 69 70 70 71 71 71 68
71 72 72 72 71 70 70 70 70 70 70 70 69 69 72 74 75 75 74 75 74 74 75 74 74 74 71 69 70 67 68 69 70 70 69 69 69 69 69 69 66 66 66 65 65 66 65 64 65 65 65 65 67 70 70 69 69 69 71 70 70 70
71 71 71 70 70 69 70 69 68 68 69 68 69 71 73 75 76 76 76 76 75 75 74 74 74 73 70 69 69 67 68 69 70 69 69 69 69 70 69 69 67 66 66 65 64 64 64 65 66 65 65 65 67 68 68 69 69 69 70 71 70 69
71 70 70 70 70 69 69 68 67 69 69 70 71 72 75 76 76 76 76 76 75 74 74 72 74 73 69 68 69 68 69 69 69 68 68 68 66 68 68 67 67 67 67 66 65 65 65 64 65 65 65 65 65 66 67 69 71 70 70 71 69 68
71 70 70 69 69 68 68 67 68 69 69 70 72 75 76 76 77 75 77 76 76 74 76 74 74 73 71 70 68 69 68 69 69 68 67 66 65 65 66 66 67 67 66 66 66 65 65 64 64 63 63 64 65 65 66 67 69 70 71 71 68 67
70 70 69 69 69 69 68 68 69 69 69 73 74 74 75 76 77 76 77 78 77 76 76 75 74 71 70 70 69 69 68 67 68 69 68 67 67 66 66 67 67 66 66 65 65 66 66 66 63 61 62 64 64 66 66 68 69 70 71 70 70 69
70 70 70 69 69 70 71 71 71 73 74 74 74 74 73 74 75 77 76 76 76 76 75 74 73 72 70 70 69 68 68 66 67 68 67 68 68 68 68 68 68 66 68 66 66 67 67 66 61 60 60 60 62 64 65 67 69 71 71 70 67 65
70 70 71 71 70 71 73 74 73 74 74 75 78 75 77 76 76 77 75 76 76 75 76 76 75 73 71 71 70 69 67 67 68 68 67 66 67 68 68 68 68 67 65 67 66 66 65 66 61 63 63 61 58 59 62 64 67 69 69 64 66 66
71 71 70 70 71 71 72 71 71 75 75 75 74 75 75 75 76 76 75 76 76 74 77 76 77 77 73 72 68 68 70 69 68 69 68 67 67 67 67 67 68 68 66 63 66 64 66 66 65 62 59 59 59 59 57 57 62 65 67 66 65 67
70 70 70 69 69 69 68 67 67 73 73 73 74 73 73 72 74 74 75 74 74 76 76 76 77 77 76 73 71 70 70 68 69 70 70 69 68 68 68 68 69 67 66 64 62 62 63 65 65 68 63 59 57 57 57 59 62 61 65 64 65 67
70 70 69 69 68 67 65 63 64 69 68 69 69 69 69 69 71 72 74 74 77 77 77 77 76 76 76 74 73 72 71 71 69 69 70 69 70 70 69 69 69 68 66 67 64 63 62 65 66 67 68 66 64 60 58 60 60 55 63 64 63 66
70 69 69 68 68 67 65 63 66 72 71 70 69 71 72 73 72 72 74 73 74 75 76 75 75 75 74 75 74 74 73 73 71 70 70 69 69 70 72 72 71 68 69 67 66 63 63 62 65 67 68 67 66 66 65 61 56 59 57 61 65 66
68 67 67 67 67 66 64 63 65 70 72 71 71 70 72 72 73 73 72 73 73 73 76 75 75 76 75 74 75 74 75 73 73 74 73 71 70 71 72 73 71 70 70 68 67 64 62 63 63 63 65 65 65 66 66 66 66 62 60 57 59 66
66 66 66 67 66 65 64 63 62 62 68 71 71 72 72 72 71 72 72 73 73 74 73 74 75 74 75 75 73 73 73 73 72 73 74 73 71 73 72 71 69 69 69 68 67 66 65 64 63 62 62 62 64 65 64 65 65 63 60 59 58 59
65 65 66 66 66 65 63 63 62 62 68 70 71 71 71 70 70 72 72 71 71 71 71 71 72 74 74 74 74 74 73 73 72 72 72 72 71 71 71 70 70 69 69 67 68 67 66 64 65 64 63 62 60 62 60 60 61 61 61 62 58 60
64 64 66 65 65 63 63 63 63 63 69 70 70 70 69 69 70 71 70 71 71 71 72 71 72 73 73 73 72 72 72 72 72 72 72 73 71 71 70 69 69 70 69 68 67 67 66 66 64 64 64 62 61 61 59 58 60 61 60 59 61 61
63 64 65 65 64 63 63 63 64 65 69 71 71 70 69 68 70 70 70 70 71 71 70 71 71 70 70 71 71 71 71 71 71 71 71 71 71 72 71 71 69 69 69 67 68 67 66 65 65 65 64 64 63 62 62 62 61 61 61 61 63 61
63 64 64 64 64 64 63 63 64 66 70 71 71 71 71 70 71 70 71 70 70 69 70 70 70 69 71 71 71 70 70 69 69 70 70 72 71 71 70 70 70 69 69 68 66 67 65 66 66 65 64 65 64 64 63 64 63 62 62 62 64 63
63 65 65 64 64 64 64 64 65 69 71 71 70 71 71 71 72 71 72 71 71 70 70 69 69 69 71 71 70 70 70 70 70 70 70 70 70 71 71 72 70 69 69 68 68 67 66 67 67 67 68 66 67 66 65 65 65 63 62 62 63 64
64 65 64 64 64 64 65 66 67 71 71 71 71 71 71 73 72 72 72 72 71 72 70 70 69 69 70 70 70 70 70 69 69 69 70 71 72 70 69 70 70 68 69 69 68 67 67 68 68 69 68 68 68 67 67 67 67 66 67 66 67 66
65 65 65 65 66 66 66 68 69 70 71 71 72 72 71 72 71 72 71 71 71 71 70 69 69 69 70 70 69 69 69 69 69 70 70 71 70 69 68 68 68 68 68 72 68 68 67 67 67 68 67 67 67 67 67 69 70 67 69 69 68 68
67 67 67 67 67 68 68 69 68 69 70 70 71 71 70 71 71 71 71 71 71 70 69 69 69 70 69 69 69 68 68 68 68 69 68 69 69 69 68 68 68 67 66 67 67 67 66 66 66 67 66 67 66 66 66 67 68 67 68 68 68 66

ECMWFFLT2_sfc_temp_033.txt.gz
Temp
71 71 70 71 71 72 74 74 74 75 75 75 74 74 73 73 73 73 73 73 72 71 71 72 73 73 74 73 73 74 74 74 74 74 74 74 73 73 73 73 73 72 73 73 73 73 73 73 74 74 74 74 74 69 69 72 72 72 71 71 71 72
70 70 70 70 70 71 72 73 71 72 73 74 74 74 72 71 73 69 73 70 68 70 69 71 72 74 72 74 74 74 74 74 74 74 73 73 73 73 73 73 73 73 72 72 73 68 68 72 73 74 73 73 70 67 69 72 71 71 71 70 70 73
70 69 69 69 69 69 70 69 69 71 73 74 74 72 71 71 68 69 68 68 69 68 69 70 71 73 73 73 73 74 74 74 74 74 74 73 73 73 73 73 73 73 72 72 69 66 66 66 67 73 74 70 68 68 70 71 71 70 70 70 71 74
70 69 68 67 68 67 68 68 68 70 70 70 70 70 69 69 68 67 67 67 67 68 69 69 76 78 75 72 72 74 74 74 74 74 74 72 73 73 73 73 73 73 71 69 65 65 67 67 66 67 66 66 67 68 71 70 71 70 70 73 72 74
70 69 67 67 68 67 68 68 68 67 66 67 69 68 68 67 66 67 68 68 68 69 68 68 69 70 70 70 69 69 70 69 69 69 72 67 66 68 68 66 67 68 66 66 68 67 68 68 68 67 67 67 69 69 72 71 71 70 69 70 70 74
70 69 68 67 67 69 68 68 66 66 66 66 68 68 68 67 67 67 68 68 68 67 67 68 68 68 68 68 69 69 68 69 68 67 69 66 66 65 65 67 67 67 67 68 68 68 69 70 69 67 68 68 69 70 71 71 70 69 68 68 71 74
69 68 68 69 68 68 67 68 67 67 66 66 67 67 67 68 68 68 67 68 67 67 67 67 66 67 67 68 67 67 66 66 65 65 66 66 66 66 66 66 66 67 68 68 69 70 71 72 72 71 69 70 68 66 68 70 69 68 67 68 71 74
69 68 68 69 69 68 67 67 68 69 67 68 67 67 67 67 68 67 68 68 68 67 67 66 67 66 67 67 66 67 66 66 66 65 66 65 65 65 65 66 66 67 68 69 70 71 71 74 73 72 71 66 65 66 65 69 69 69 68 68 70 72
69 69 69 69 68 66 66 66 67 66 66 69 66 66 67 68 67 68 68 68 68 66 66 66 66 66 66 66 66 65 65 65 65 65 66 65 65 66 65 66 65 65 65 67 68 68 70 71 71 72 67 66 67 67 66 68 69 69 68 68 68 71
69 69 70 69 67 66 66 65 66 65 65 68 65 66 68 67 68 68 67 68 68 66 66 66 66 67 66 66 66 65 65 65 66 64 65 64 65 65 65 65 65 65 66 67 67 67 68 70 72 67 68 66 65 64 64 64 68 69 69 68 68 69
70 71 70 67 66 67 66 66 66 66 66 66 66 67 68 69 68 68 67 67 68 68 68 68 67 66 67 66 66 65 65 65 65 65 65 65 65 65 64 64 64 65 65 66 65 66 69 69 68 67 66 66 65 65 66 66 66 70 70 68 67 68
70 70 68 68 68 67 67 67 67 66 66 66 67 67 68 68 68 67 68 67 67 68 68 67 67 67 67 66 66 65 66 65 65 66 66 65 65 65 65 65 66 66 65 65 65 67 68 67 67 66 66 66 66 66 66 66 67 67 67 68 68 68
71 70 69 68 68 67 67 67 66 66 67 68 68 68 67 67 67 67 67 67 67 68 67 67 66 67 67 65 65 65 65 66 67 66 67 66 66 66 66 66 66 66 66 65 65 65 67 66 66 66 66 66 66 67 67 65 66 67 67 68 67 67
70 70 70 69 68 67 67 66 66 66 68 68 68 67 67 66 67 67 68 68 68 68 68 67 67 65 65 63 63 64 64 65 66 66 66 65 65 65 65 65 65 66 66 65 64 64 65 64 64 65 65 66 65 66 66 67 66 66 66 66 66 67
69 68 68 69 69 67 66 66 66 66 68 68 68 67 66 67 67 68 68 68 68 69 68 68 68 65 64 63 63 64 64 65 66 66 65 65 65 65 66 65 65 65 65 64 64 64 64 64 63 64 64 65 65 66 65 65 67 68 68 67 66 66
68 66 67 68 67 68 67 67 67 69 68 68 67 67 67 68 69 69 69 69 69 69 69 68 68 66 64 64 63 63 64 64 66 66 65 65 65 65 65 65 65 64 63 63 64 62 63 63 64 64 64 65 65 65 64 64 66 67 68 68 67 65
68 67 67 68 67 67 67 67 67 67 67 67 67 67 68 69 69 69 68 68 69 69 68 68 67 67 66 65 65 64 64 64 65 65 64 64 64 65 64 65 63 64 63 63 63 63 62 63 63 63 64 64 65 65 65 64 65 67 67 66 65 65
68 68 67 67 66 65 66 66 65 65 67 67 67 68 68 69 69 69 69 69 69 69 68 68 67 66 65 65 65 64 63 64 64 64 64 64 63 63 64 64 63 63 63 62 62 62 62 63 64 63 63 63 64 64 64 65 65 67 66 67 66 65
67 66 66 66 66 65 65 64 64 65 65 66 67 67 68 68 69 69 69 70 70 69 68 68 68 66 65 65 64 64 63 64 64 65 64 63 62 63 63 63 63 63 63 63 62 62 62 62 63 63 63 63 64 64 64 65 64 65 66 66 66 67
66 66 66 65 64 63 63 63 64 64 65 66 67 67 68 68 69 69 71 70 70 69 69 68 67 66 65 64 63 63 64 64 64 64 63 62 61 63 63 62 63 63 63 63 62 62 62 62 62 62 62 62 63 63 64 64 64 64 64 65 65 64
65 65 65 64 63 63 63 63 64 65 66 66 67 68 69 69 70 70 71 71 71 69 68 68 68 67 66 67 64 63 64 63 64 64 62 61 61 62 62 62 63 62 63 62 61 62 62 62 61 59 60 61 61 63 63 64 63 64 65 64 64 64
65 65 65 64 64 64 65 65 63 64 63 64 67 68 67 68 69 70 69 69 70 70 69 68 68 67 66 65 64 64 64 63 63 63 64 63 62 63 62 62 63 62 63 62 61 63 63 61 58 57 57 56 59 60 63 62 63 64 64 64 64 64
65 65 65 66 65 65 65 65 64 64 68 66 67 69 70 69 70 70 69 70 70 69 69 68 68 67 67 66 64 64 64 63 63 65 63 62 62 62 62 63 63 62 61 61 61 63 62 61 58 59 58 57 55 55 59 60 62 63 64 62 62 63
66 66 66 66 66 65 64 63 63 66 67 68 67 68 68 67 69 70 69 69 67 68 69 68 69 68 68 67 65 64 64 64 64 64 63 63 62 62 62 62 63 62 63 61 60 60 62 62 61 60 56 54 55 55 54 56 57 60 63 63 63 63
66 65 65 65 65 64 64 63 65 68 69 68 68 67 66 65 66 67 69 67 69 68 69 69 69 68 68 66 65 65 64 65 64 64 65 63 63 63 63 62 62 62 61 60 58 58 60 62 62 62 58 57 54 54 53 56 58 58 61 61 63 63
65 65 65 65 65 64 63 63 63 65 64 64 64 65 63 63 65 66 67 67 67 68 68 68 68 69 68 66 65 65 65 65 64 65 65 64 65 64 64 63 63 63 62 61 60 59 58 61 61 63 62 60 58 54 55 58 56 52 59 61 61 63
65 64 65 65 64 64 62 62 63 64 65 64 64 64 64 64 65 65 67 66 67 67 68 67 67 66 66 66 65 64 65 65 65 64 66 65 64 64 65 66 65 63 63 62 61 59 59 59 61 61 63 62 62 61 61 58 53 56 54 58 60 60
65 64 65 65 64 63 62 61 61 61 62 63 64 64 65 65 65 67 67 66 67 66 67 67 66 66 66 67 66 66 66 65 64 65 65 64 64 65 66 67 66 65 64 63 62 60 59 60 60 58 61 61 62 62 61 61 61 57 57 54 56 61
64 64 64 64 64 62 62 62 61 62 61 62 65 66 65 66 65 66 65 64 65 66 65 65 66 66 66 66 66 66 64 64 64 65 66 65 64 66 66 64 64 64 62 62 63 61 60 60 60 60 59 59 60 60 60 61 61 61 55 56 54 56
63 64 64 64 63 62 63 62 61 62 63 64 65 66 65 64 64 64 63 63 63 64 64 64 65 64 65 67 64 64 66 64 64 66 66 65 67 66 65 65 65 64 63 62 62 62 61 60 61 61 60 59 57 57 58 58 58 59 59 58 55 57
64 64 64 63 63 62 63 62 62 63 64 65 65 64 63 63 63 62 64 63 63 63 63 63 64 63 64 65 64 64 63 64 64 64 65 65 64 66 63 64 65 65 64 63 62 62 62 62 61 60 60 59 58 59 57 55 58 58 57 56 58 59
62 62 63 63 63 62 62 62 63 64 64 66 66 65 64 63 62 61 62 62 61 62 62 63 62 63 63 63 63 63 63 64 64 63 63 63 64 63 64 64 64 64 64 63 62 62 61 60 60 60 59 59 59 58 57 58 58 58 58 58 60 59
61 61 62 62 62 62 62 62 63 64 65 66 67 66 65 64 62 62 62 62 62 62 61 62 61 63 64 64 62 62 63 62 63 64 63 64 63 63 63 63 64 63 63 62 61 62 61 61 61 60 59 59 60 60 59 59 60 60 61 62 62 60
60 61 61 62 62 61 61 62 63 64 66 67 67 67 66 66 64 64 63 63 63 62 61 62 62 61 62 64 63 62 61 61 61 61 62 62 62 63 62 65 63 62 62 63 62 62 62 61 61 60 61 59 60 60 60 61 60 61 60 61 59 59
61 60 60 60 60 60 60 61 63 64 65 67 67 66 66 66 65 64 63 64 63 62 63 62 61 63 63 61 61 63 63 61 62 62 62 63 64 61 61 63 62 61 61 61 61 61 62 62 62 62 60 60 60 60 59 61 60 62 63 62 61 60
62 61 60 60 60 60 60 61 63 64 65 66 66 66 65 66 65 65 64 63 63 63 63 62 63 63 62 63 62 62 61 61 61 61 60 61 62 62 61 61 61 60 61 65 61 60 60 61 61 60 60 60 61 60 61 61 62 60 62 62 62 61
61 61 61 60 60 61 61 61 63 63 64 65 66 65 65 64 65 65 64 64 64 63 63 63 63 62 62 60 60 61 61 60 60 61 61 61 61 60 60 60 59 59 59 60 60 60 59 60 59 59 59 60 59 59 59 61 61 61 61 61 61 60

ECMWFFLT2_sfc_temp_036.txt.gz
Temp
71 72 71 71 71 72 73 74 74 74 74 74 74 74 74 74 74 74 74 74 73 71 70 71 72 72 74 73 73 74 74 74 74 74 74 74 73 73 73 73 73 72 72 72 72 73 72 72 73 72 73 72 71 69 68 68 68 68 68 68 69 69
70 71 71 71 71 72 72 73 71 72 72 73 74 74 72 71 73 70 74 71 68 71 68 69 70 74 71 73 73 74 74 74 74 74 73 73 73 73 73 72 72 72 72 71 72 65 65 69 71 72 73 71 67 67 68 68 68 67 68 67 68 71
70 70 70 70 70 70 69 69 69 70 72 73 73 71 69 70 67 67 67 67 68 67 67 68 69 72 72 73 73 74 74 74 74 74 73 73 73 72 72 72 72 72 71 72 65 62 63 63 63 71 70 66 66 68 67 67 67 67 67 68 68 74
69 69 69 69 69 68 67 68 68 68 69 69 69 69 67 67 66 66 66 66 66 67 67 68 75 75 74 71 72 74 74 74 74 73 73 70 72 72 72 72 72 72 67 66 62 63 64 63 64 63 64 66 66 68 67 67 66 67 67 71 70 74
69 69 69 69 68 67 67 67 66 66 67 67 67 66 66 66 66 66 66 66 66 67 66 67 68 69 68 69 68 68 69 68 68 68 69 65 65 65 66 64 64 65 62 64 64 64 65 66 65 65 65 66 67 68 68 67 67 66 67 69 70 73
68 68 69 68 67 68 67 66 65 66 66 66 66 66 65 66 66 66 66 67 67 66 66 66 67 67 67 67 67 67 67 67 66 66 67 64 64 64 63 64 65 65 65 66 66 67 66 67 67 66 66 65 67 67 66 66 66 66 67 68 71 74
67 68 68 68 67 67 66 66 65 65 65 65 65 65 65 65 65 66 66 67 66 65 65 65 66 65 65 65 66 65 65 65 64 64 65 64 64 64 64 64 64 64 64 66 67 67 67 68 67 66 65 65 65 66 66 66 65 66 66 67 71 74
67 68 67 68 67 66 66 66 66 68 65 67 66 65 65 64 66 66 67 67 67 66 65 65 65 65 64 65 65 65 65 64 64 64 64 64 63 63 63 63 64 64 65 65 67 67 66 67 66 66 65 64 65 64 65 66 66 65 65 66 69 72
68 68 67 67 66 66 66 65 66 65 64 70 65 64 65 65 65 66 67 67 67 65 65 65 65 65 64 65 64 64 64 64 64 64 64 63 63 63 62 63 63 64 64 65 64 65 66 67 66 65 65 64 65 64 65 65 66 66 65 65 67 70
68 68 67 67 66 65 65 65 65 64 65 68 64 65 66 65 65 66 65 66 67 66 65 65 65 64 64 64 64 64 64 63 63 63 64 64 63 63 62 62 62 64 64 64 65 65 65 66 66 65 65 66 64 64 64 65 66 65 66 66 67 69
68 68 68 66 65 65 65 64 64 65 66 65 65 66 66 66 66 65 65 66 66 67 66 65 65 64 64 64 64 64 64 64 64 63 63 64 64 65 63 63 63 63 63 64 64 65 65 65 65 65 64 65 63 63 64 65 65 66 66 66 66 67
69 68 67 66 66 65 65 65 65 65 65 65 65 65 66 66 67 65 66 66 66 66 66 65 65 65 65 64 64 64 64 64 64 64 64 64 64 64 64 64 65 64 63 64 63 64 64 64 64 64 64 64 64 64 64 65 65 65 66 66 66 66
68 67 67 66 66 65 65 65 65 65 65 66 66 66 66 66 65 66 66 66 66 66 65 65 64 66 66 64 64 64 63 65 65 65 65 65 65 64 65 64 64 64 63 63 63 63 65 64 64 64 64 64 64 65 65 65 65 65 65 66 65 65
68 67 67 66 66 65 65 65 65 65 66 66 66 65 65 65 66 65 66 66 66 66 66 65 65 64 64 63 63 63 63 63 64 65 65 65 65 63 64 64 63 64 65 63 62 62 62 62 63 63 63 63 64 64 64 65 65 65 65 65 65 65
68 66 67 66 66 65 65 65 65 65 65 66 66 65 64 65 65 65 66 65 66 66 65 65 65 64 63 63 63 63 63 63 65 65 64 64 64 64 64 64 63 63 62 62 62 62 62 62 62 63 62 63 63 64 64 64 65 66 65 64 64 64
67 66 66 66 65 65 65 65 65 67 66 66 66 65 65 65 66 65 65 64 65 65 65 66 65 64 63 63 63 62 63 64 65 65 64 64 64 63 63 63 63 63 62 61 62 61 61 62 63 63 63 63 63 63 62 63 64 65 65 65 65 64
66 66 66 66 65 65 64 65 65 66 66 66 65 65 65 65 66 66 65 65 65 66 65 65 65 64 63 63 62 62 62 64 65 64 63 62 63 63 63 63 62 62 62 61 61 61 61 61 62 62 63 63 63 63 62 64 64 65 65 64 63 63
65 66 66 66 65 65 65 66 65 65 66 65 65 65 65 66 66 66 66 66 66 66 66 65 65 64 63 64 63 63 63 64 64 64 63 63 62 61 62 63 62 62 62 62 61 61 61 62 62 62 62 62 62 63 62 63 64 65 64 64 63 63
65 65 65 65 65 65 65 64 64 65 65 64 64 65 65 66 66 66 66 66 66 66 67 65 65 65 64 64 63 63 63 63 64 63 62 62 62 63 62 61 61 61 62 61 61 61 61 62 62 62 62 62 62 62 62 63 63 63 63 63 64 65
65 65 65 65 65 64 64 63 63 62 63 63 63 65 65 66 66 65 66 66 66 66 67 66 65 64 64 63 63 62 63 63 63 63 62 62 61 63 62 60 60 62 61 62 62 61 62 61 61 61 61 61 62 62 63 62 63 63 62 63 64 63
65 65 64 63 63 63 62 61 61 62 62 63 63 64 65 64 65 65 67 68 67 66 66 66 65 64 64 65 63 62 63 62 63 63 63 62 61 62 61 60 61 60 60 60 60 61 61 62 60 59 60 60 60 61 63 63 62 62 62 62 63 63
64 64 64 64 64 64 63 63 62 62 62 62 63 63 63 63 65 66 66 66 66 65 65 66 65 65 65 63 62 62 62 62 62 63 62 61 60 62 61 61 61 60 59 59 58 61 61 61 58 57 57 57 59 60 61 61 62 63 62 62 61 62
64 64 64 64 64 64 64 64 64 62 63 62 65 64 65 65 66 66 65 66 65 65 66 65 65 65 64 64 63 63 62 62 62 63 61 60 60 60 60 62 61 60 59 59 60 60 60 59 57 58 58 57 55 55 57 58 61 61 62 60 61 62
64 64 64 64 65 65 65 64 63 63 63 64 63 64 64 64 65 65 65 65 64 65 65 65 65 65 65 64 63 63 62 62 62 63 61 61 60 59 60 60 60 59 60 59 57 59 60 60 60 60 56 54 54 55 53 53 56 59 61 62 61 62
64 64 64 65 65 63 64 62 62 63 63 63 63 63 63 62 63 64 64 63 64 64 65 64 64 64 65 64 63 63 62 62 62 62 62 61 61 61 61 60 61 60 60 58 57 58 59 60 61 60 58 55 53 53 53 53 56 57 58 59 60 62
65 65 65 64 64 64 63 62 61 63 62 61 60 60 60 62 62 63 63 63 63 63 64 64 64 64 64 63 62 63 62 63 62 62 62 62 62 61 61 60 61 62 60 58 59 57 57 59 60 61 59 57 56 54 54 55 54 52 56 58 59 61
65 65 64 64 63 64 62 62 64 65 64 63 62 61 62 63 64 62 62 63 63 63 64 64 63 63 62 62 61 62 62 62 63 61 62 62 62 62 62 63 62 61 61 60 59 57 59 58 59 60 60 61 60 59 61 56 50 53 52 55 57 59
65 65 64 64 63 64 63 61 63 63 63 63 64 63 63 63 62 62 63 62 62 62 62 63 63 62 62 62 61 61 61 61 62 62 63 62 62 61 63 63 63 62 61 61 60 59 58 59 59 58 59 59 59 61 60 57 58 57 55 53 54 58
65 64 63 64 64 63 63 62 63 63 61 63 64 63 63 64 63 63 61 60 62 61 61 61 61 62 61 62 63 62 61 61 61 62 63 62 61 62 62 62 62 61 61 60 60 59 59 59 59 58 58 56 59 59 58 59 58 57 53 53 52 54
64 64 63 63 63 62 62 62 62 63 62 62 63 62 64 63 62 61 60 60 60 60 60 61 62 61 62 61 61 61 60 60 61 61 62 61 61 61 61 62 62 62 61 60 59 60 60 59 59 59 59 58 57 56 57 57 55 55 57 55 55 55
64 62 63 62 62 62 61 62 63 63 64 63 63 63 62 61 59 59 61 60 60 60 61 61 60 61 61 61 61 61 60 61 61 62 62 62 62 62 61 61 62 62 62 61 59 59 58 58 59 59 58 58 58 59 58 56 56 57 55 54 55 55
62 61 61 61 61 61 61 62 63 64 65 65 64 64 63 61 61 60 60 59 58 60 59 60 59 60 60 61 62 60 60 60 60 60 60 60 60 60 60 61 61 61 61 60 60 60 59 58 58 59 58 58 58 56 56 59 57 56 57 58 59 56
61 61 61 61 61 60 60 61 62 63 64 65 64 64 63 61 60 61 60 59 59 58 58 61 59 60 58 59 60 61 61 60 59 59 60 60 60 60 60 60 60 60 60 60 60 59 59 58 58 58 58 58 58 58 58 58 58 57 58 59 59 57
61 61 60 61 60 60 60 60 61 63 63 62 63 63 62 62 61 61 61 61 60 60 59 60 58 58 58 58 59 59 59 58 58 58 59 59 59 60 60 61 59 59 59 58 58 59 58 57 57 57 57 57 57 58 58 59 60 59 59 59 57 59
61 60 60 60 59 59 60 60 61 60 62 62 62 62 62 62 62 61 61 61 60 59 60 59 59 58 58 59 58 58 59 58 58 58 58 59 61 59 59 60 59 58 57 57 58 58 57 57 58 57 56 57 58 58 58 59 60 61 61 61 60 58
61 60 60 59 58 59 59 59 59 59 61 61 62 62 62 61 61 61 61 61 60 60 60 59 59 59 58 60 59 59 58 57 57 58 58 58 58 59 58 58 58 57 58 61 58 58 57 58 57 56 57 56 58 57 57 59 60 60 61 61 60 58
61 60 60 59 59 59 59 60 59 59 60 61 61 61 62 61 60 60 61 61 61 60 60 60 60 59 59 57 58 58 58 57 57 57 57 57 57 57 57 57 57 56 56 56 56 56 55 57 56 57 56 57 57 57 57 57 58 58 59 58 59 56

ECMWFFLT2_sfc_temp_042.txt.gz
Temp
71 71 71 71 70 71 73 74 74 74 74 74 74 74 74 74 74 74 73 73 70 70 70 70 72 72 74 73 73 74 75 75 74 74 74 73 73 73 72 72 72 72 72 71 70 70 71 71 72 72 73 73 73 69 67 67 67 68 68 69 69 69
71 71 71 70 70 71 72 72 70 71 72 73 73 74 72 71 73 70 72 70 68 70 69 70 71 74 72 73 73 74 74 74 74 73 73 73 72 72 72 72 72 71 71 70 68 64 65 70 72 72 73 72 68 67 67 67 67 68 68 68 68 71
71 71 71 71 70 70 70 70 70 70 71 73 73 71 70 70 69 70 70 69 69 68 69 69 70 72 72 74 73 74 74 74 73 73 73 72 72 72 72 71 70 69 68 67 63 62 63 63 67 73 73 69 66 66 66 66 67 67 67 69 68 73
71 71 70 70 70 70 69 69 70 70 69 69 69 69 69 69 69 69 69 69 69 69 68 68 74 75 73 71 72 74 74 73 73 73 73 71 72 71 70 71 71 68 65 63 62 64 64 64 65 65 66 66 66 66 66 66 67 67 67 71 68 73
71 71 70 70 70 69 69 69 69 69 69 68 68 68 68 68 69 69 69 69 68 68 67 68 68 68 68 69 68 68 68 67 67 67 69 65 65 66 65 64 64 64 62 64 64 64 65 65 65 66 66 66 66 66 66 67 67 67 67 69 70 73
71 70 70 70 69 70 69 68 67 68 68 67 67 67 67 67 68 68 68 68 68 66 67 67 67 67 67 67 67 66 66 66 66 65 66 64 64 64 64 64 64 64 63 64 64 64 66 66 65 66 66 66 66 66 66 66 67 67 67 68 71 73
69 70 70 70 70 69 67 67 67 67 67 66 67 66 66 67 68 67 67 67 66 65 66 66 67 67 66 66 66 65 65 65 64 63 65 64 63 63 63 64 63 63 63 64 64 64 65 65 66 67 66 66 66 66 66 66 67 67 67 68 71 73
69 69 69 70 69 67 66 67 68 69 67 67 66 65 65 66 67 66 66 66 66 65 65 65 66 66 66 66 65 65 63 63 63 63 63 63 63 63 63 63 63 63 64 64 64 64 65 65 65 67 66 65 65 65 65 66 67 67 67 68 69 72
69 69 69 69 68 66 67 67 67 67 67 68 65 65 65 66 65 65 66 66 66 65 65 65 66 66 66 65 65 65 63 63 63 63 63 63 63 63 63 63 62 62 62 63 63 64 64 64 65 66 66 65 65 65 65 66 66 67 67 68 68 71
69 69 68 68 66 66 66 66 66 67 67 67 65 65 65 65 65 65 65 65 65 64 64 65 66 66 66 64 64 63 63 63 63 63 63 64 64 62 62 62 61 61 63 63 64 65 64 64 65 65 66 66 65 65 65 65 66 67 67 68 68 71
69 69 68 67 66 65 66 65 66 66 66 65 65 65 64 65 65 64 64 65 65 65 64 65 65 65 64 63 63 62 62 63 63 63 64 64 64 63 62 62 62 62 62 62 63 64 64 64 64 65 65 66 65 65 65 65 66 67 68 68 68 69
68 68 67 67 66 65 65 65 66 66 65 65 65 64 63 64 65 64 64 64 64 64 65 64 64 63 63 62 62 62 62 62 62 63 64 64 64 63 63 64 64 63 62 62 62 63 63 63 63 64 64 65 65 65 65 65 66 66 66 67 67 68
68 67 67 66 66 65 65 65 65 65 65 65 65 64 63 64 63 64 64 64 64 65 65 64 63 64 65 63 63 63 62 62 63 64 64 65 65 65 64 63 62 63 62 62 62 62 64 63 63 63 64 65 65 65 65 65 65 65 65 65 65 66
67 67 67 67 66 65 64 64 65 64 65 66 65 64 64 63 64 64 64 64 64 65 64 64 64 64 64 64 64 63 62 62 63 64 64 65 64 64 63 63 63 63 63 61 61 61 62 62 62 63 64 64 64 65 65 65 65 65 65 64 65 65
67 66 67 66 66 65 64 64 64 64 64 65 65 65 64 64 65 64 64 64 65 65 64 64 64 64 63 64 63 63 62 63 64 64 64 65 65 64 63 62 62 62 61 61 61 62 62 61 62 62 63 64 64 64 65 64 64 65 65 64 64 65
67 66 66 65 65 65 64 64 64 65 63 65 65 65 64 65 64 64 64 64 65 65 64 64 64 63 62 63 63 63 64 64 64 63 63 64 64 62 61 61 61 61 61 61 61 61 61 62 62 62 63 63 63 64 63 64 64 64 64 64 64 64
66 66 66 65 64 65 65 63 64 65 64 64 65 65 64 64 65 64 64 64 65 65 64 64 64 64 63 63 62 63 64 64 64 63 62 62 62 62 62 61 61 61 60 60 61 61 61 62 62 62 62 62 63 63 63 64 63 63 64 63 63 64
67 67 66 65 64 64 64 64 64 64 64 64 65 65 65 65 64 64 65 64 64 65 64 64 64 64 63 64 63 63 64 64 64 63 63 63 62 62 62 61 61 62 62 60 60 61 61 62 62 62 62 62 63 63 63 64 64 64 63 63 63 63
67 66 65 65 65 64 64 64 64 65 64 64 65 65 64 64 64 64 65 64 65 65 65 64 64 64 63 63 63 64 64 64 63 62 63 62 62 62 62 61 61 61 61 61 61 61 62 62 62 62 62 62 63 63 63 63 63 63 63 64 65 65
66 65 65 64 64 64 64 64 64 64 64 65 65 65 64 64 64 64 64 64 64 64 64 64 64 63 63 63 63 64 64 63 63 63 62 62 62 62 61 60 61 61 61 62 62 62 62 62 61 62 61 62 63 63 63 63 63 63 63 63 62 62
65 65 64 64 63 63 63 63 64 64 64 65 65 65 64 64 63 63 64 64 64 64 64 64 64 63 62 64 63 64 64 63 63 64 63 63 63 63 61 61 61 61 61 61 61 61 61 62 61 59 61 61 61 63 63 62 61 62 62 62 63 63
65 65 65 64 64 64 64 65 64 64 64 65 65 64 63 63 62 63 63 64 64 64 64 64 64 63 63 63 63 63 63 63 64 64 65 65 65 63 61 61 61 59 60 61 60 62 60 58 58 58 58 58 59 60 61 62 62 62 62 62 62 63
65 65 65 65 65 64 65 65 65 65 65 63 65 64 62 62 63 63 62 63 64 63 63 63 63 64 63 63 63 63 63 64 64 65 64 63 64 63 61 61 60 60 59 60 60 60 59 59 56 57 59 58 56 56 58 60 62 62 62 62 62 62
65 65 65 65 66 66 66 65 65 65 65 63 62 63 61 61 62 62 61 62 62 63 63 63 63 64 63 62 63 63 63 63 64 65 64 63 63 63 62 61 59 59 60 59 59 60 60 60 59 60 56 55 55 57 55 56 57 60 62 62 62 62
65 65 65 65 65 65 64 63 62 63 63 61 61 60 61 59 59 62 61 61 61 62 63 63 63 63 63 62 62 63 63 63 63 64 64 63 63 63 63 62 60 60 60 59 57 58 59 59 60 60 59 55 54 54 55 56 58 58 60 60 61 62
65 65 65 65 64 64 64 62 60 60 59 57 57 59 59 60 58 60 61 59 61 61 62 62 62 62 63 62 62 62 63 62 62 63 63 63 63 64 64 63 61 61 59 60 60 58 58 59 60 60 59 59 57 57 54 57 58 53 59 59 61 62
65 65 65 64 64 64 62 61 61 61 61 60 59 57 57 58 60 58 59 60 60 60 61 62 61 61 62 62 62 62 62 63 63 62 63 62 61 62 64 64 63 61 60 60 59 58 58 58 59 59 59 59 60 59 60 59 54 55 54 57 58 57
65 64 64 64 63 63 61 60 60 60 60 59 60 59 58 58 58 60 59 58 60 59 60 60 61 60 61 62 61 61 61 62 62 62 63 61 61 62 63 64 64 63 61 61 60 60 58 58 59 59 59 59 58 59 59 56 60 59 57 54 55 59
64 64 63 64 63 62 62 60 60 60 59 59 60 59 59 60 59 59 58 57 59 59 59 59 60 60 60 61 62 61 60 61 61 62 63 61 61 62 62 62 62 61 60 60 60 60 60 59 59 59 58 57 58 58 58 58 58 58 57 55 54 56
63 63 63 62 62 61 61 60 59 59 59 59 60 58 59 58 57 58 57 56 57 58 58 58 58 59 60 60 61 61 60 60 61 61 63 61 61 61 61 62 62 61 61 60 60 61 61 60 60 59 59 58 56 56 58 59 57 57 58 58 56 55
63 62 61 61 61 60 60 60 60 60 60 59 58 58 57 57 57 57 57 56 57 57 57 57 58 57 58 58 58 60 59 59 60 62 63 61 61 61 61 61 61 61 61 60 59 59 60 60 60 59 58 59 59 60 59 57 58 58 57 56 56 56
61 61 60 60 60 60 60 60 60 60 60 60 59 59 58 57 57 58 57 56 55 57 57 57 57 57 57 57 58 57 59 59 60 60 61 61 60 61 61 61 61 61 61 60 60 60 59 59 59 59 58 58 59 59 57 60 59 59 59 59 59 56
60 60 59 60 60 60 59 59 60 60 60 60 60 59 59 58 57 57 57 57 57 57 56 58 57 58 57 57 57 57 57 58 59 60 60 59 59 60 60 60 61 61 60 60 59 59 59 59 59 60 59 58 58 59 57 58 59 58 59 60 59 56
60 59 59 60 60 59 60 60 60 61 60 61 60 60 60 59 57 58 58 58 59 59 58 59 57 58 57 57 56 57 58 57 58 58 58 57 57 58 59 60 60 60 59 59 59 59 59 59 58 58 58 58 58 58 57 58 58 59 59 59 58 58
59 59 59 59 59 59 59 60 60 60 61 61 61 61 60 59 58 57 57 58 58 58 59 58 58 58 57 56 56 56 57 56 57 57 57 58 58 58 59 59 59 59 58 58 58 58 58 58 58 58 58 59 57 57 57 58 59 61 62 62 61 59
59 58 58 58 58 59 59 59 59 59 60 60 60 60 59 58 58 59 58 59 58 58 58 57 56 57 56 57 56 56 56 55 56 56 57 56 57 57 58 58 57 57 58 58 57 57 57 58 58 58 58 57 58 58 57 58 60 60 62 63 62 61
59 58 58 58 57 58 58 58 58 59 59 59 59 60 60 58 58 58 58 58 58 57 56 57 58 57 56 55 55 55 56 55 55 55 56 56 56 56 57 58 57 56 57 57 58 58 57 58 57 57 58 59 59 58 58 59 59 59 60 61 62 62

ECMWFFLT2_sfc_temp_045.txt.gz
Temp
76 77 77 77 77 77 77 75 75 74 74 74 74 74 74 74 75 75 75 74 73 76 76 77 77 78 75 76 74 74 75 75 74 74 73 73 73 73 73 72 72 72 72 72 72 72 72 73 73 73 72 73 73 78 79 78 78 78 79 79 79 80
75 76 77 76 77 77 77 77 77 77 77 76 74 74 75 76 75 76 74 75 75 75 76 77 77 76 77 76 76 75 75 74 74 73 73 72 72 72 72 72 72 71 71 71 71 77 76 73 73 73 73 72 78 79 78 78 78 79 79 79 79 76
76 76 76 77 76 77 77 76 77 77 76 74 75 73 75 76 77 77 77 77 74 74 75 76 76 77 77 75 76 74 74 74 73 73 73 72 72 72 72 71 70 69 68 69 75 77 78 79 77 73 73 76 79 79 78 77 78 79 79 78 79 74
76 76 75 76 76 76 75 76 75 76 75 76 75 76 76 76 76 76 76 75 72 74 75 74 76 75 75 77 76 74 73 73 73 73 72 74 72 72 71 71 70 70 72 75 76 78 79 80 80 78 78 79 79 78 77 78 79 79 79 79 80 73
77 76 75 75 75 75 75 74 74 73 74 73 73 74 74 75 75 75 75 73 74 75 75 75 76 77 78 78 78 77 77 77 76 75 72 75 76 75 76 77 76 75 77 76 77 77 78 79 79 79 78 78 78 78 78 78 78 80 79 78 77 73
76 75 76 75 75 75 73 71 70 70 71 72 72 72 74 73 74 74 72 74 74 74 74 75 75 75 76 76 76 77 76 75 74 72 73 74 74 72 73 75 76 78 78 78 78 77 78 78 78 78 78 78 78 77 79 79 79 78 78 78 77 73
74 74 74 76 75 73 70 70 70 70 71 70 70 71 71 73 74 74 74 75 74 73 73 73 73 74 75 76 75 75 74 72 71 70 70 70 71 73 77 77 77 76 76 77 78 77 78 78 79 79 78 79 78 79 78 79 79 79 78 78 76 72
74 73 73 75 74 71 69 70 71 71 71 70 71 70 71 73 73 73 74 74 73 72 71 71 72 73 74 74 73 73 73 72 71 70 70 71 73 75 76 75 75 74 76 78 79 78 79 79 79 79 78 78 78 77 78 79 79 78 78 78 78 74
74 72 73 73 70 69 70 71 70 70 70 71 70 71 71 73 73 73 73 74 74 72 71 72 72 73 74 73 72 73 74 72 71 72 73 72 74 74 74 74 74 76 77 77 78 77 79 79 79 79 79 78 78 77 77 78 78 78 78 78 78 76
72 73 72 71 69 69 70 69 70 71 71 71 69 70 72 73 73 74 73 75 74 73 72 73 73 73 74 71 72 73 73 73 72 71 73 72 73 72 73 74 75 76 79 77 77 76 77 78 79 79 79 78 77 77 77 77 78 79 78 78 77 76
73 71 71 70 69 70 70 70 71 72 72 70 70 70 71 72 73 74 74 74 74 73 73 73 73 73 73 72 73 74 74 73 72 73 72 72 72 73 72 73 73 75 76 77 76 77 78 77 78 78 76 78 76 75 76 76 78 79 79 78 78 77
71 71 70 70 70 69 70 71 72 71 70 70 70 70 71 73 73 73 74 74 74 74 74 73 72 73 73 73 73 74 73 74 72 71 72 72 72 72 73 73 73 74 73 74 75 76 76 77 77 78 77 77 77 75 75 75 77 77 78 78 78 77
70 70 70 69 69 70 70 71 71 71 71 71 72 72 72 72 72 73 74 74 75 75 75 74 74 74 74 73 72 73 73 73 73 71 71 71 73 73 73 73 73 74 73 73 74 74 76 75 75 76 76 74 74 75 74 74 75 76 76 77 77 77
69 68 69 69 69 69 69 69 70 71 71 71 72 72 72 72 73 73 74 75 75 75 75 75 75 73 73 71 71 72 73 72 72 70 70 72 73 73 74 74 74 74 72 73 72 74 74 74 74 75 74 73 73 73 73 75 74 74 74 75 75 77
69 69 69 68 68 68 68 69 70 70 71 71 71 71 72 72 73 74 75 74 75 74 75 75 75 74 71 72 72 73 73 73 72 70 70 70 73 73 73 73 75 74 72 72 71 73 75 72 70 70 70 71 70 72 72 71 72 74 74 73 73 75
69 68 70 69 68 68 69 70 70 69 70 70 70 71 72 73 75 75 75 74 74 75 75 75 75 75 73 73 74 73 72 71 70 70 71 70 73 73 72 71 71 72 70 69 69 67 69 70 70 69 70 70 70 71 70 71 72 73 74 71 70 71
68 68 68 68 69 69 69 69 69 69 69 69 70 70 72 73 74 73 74 74 73 74 75 74 75 74 73 72 71 71 70 70 70 70 70 71 73 73 72 70 70 71 71 67 68 67 68 68 68 69 70 70 70 70 71 71 71 71 71 70 69 69
68 69 68 68 68 68 69 70 69 68 69 69 70 72 72 73 73 73 73 73 73 73 73 74 74 74 73 73 72 70 69 69 70 70 70 71 71 72 72 71 70 70 70 68 67 68 67 68 69 69 69 69 69 70 70 69 68 68 69 68 68 69
68 68 67 67 67 67 68 68 68 69 68 69 70 71 72 72 73 73 73 73 73 73 73 73 73 74 73 73 73 72 70 70 70 70 69 69 69 70 69 71 70 68 69 69 68 68 68 69 69 69 68 68 68 68 69 68 67 67 67 68 67 68
69 69 68 67 67 66 67 67 66 67 68 68 69 69 70 71 72 74 73 72 73 72 74 74 74 74 73 73 72 70 70 71 70 70 69 69 69 71 69 68 69 68 67 67 69 69 69 70 69 67 66 66 66 66 67 67 66 66 66 67 67 67
68 68 67 66 65 65 65 66 67 67 68 69 68 68 69 70 71 73 73 74 74 73 73 73 73 73 72 72 72 70 70 69 71 72 70 70 71 71 70 69 68 69 68 66 66 68 69 70 67 63 64 63 62 65 67 67 65 66 67 65 66 66
67 67 67 67 67 67 69 68 68 69 70 70 69 67 68 70 71 71 72 73 73 74 73 73 73 73 72 72 70 69 70 69 69 71 70 71 71 70 68 68 69 68 69 68 65 68 69 70 66 65 63 61 61 63 64 66 66 66 67 67 67 66
67 67 67 67 67 67 69 70 71 70 71 71 72 72 71 70 72 72 72 73 73 73 73 73 73 73 71 71 70 69 69 69 69 70 69 68 69 68 67 67 69 68 65 69 68 69 68 70 68 67 67 65 61 59 60 62 65 66 66 67 67 66
67 67 67 67 68 69 70 70 72 71 71 70 69 70 70 71 72 72 71 72 73 73 72 73 73 73 72 71 69 69 69 69 69 70 70 68 68 67 67 67 69 69 68 64 66 65 68 68 71 68 63 65 63 63 58 58 60 63 66 66 67 67
67 67 67 67 68 68 68 68 68 68 68 67 68 68 69 69 71 71 71 71 71 72 72 72 72 73 74 69 69 70 69 68 68 69 70 68 68 68 68 69 69 69 69 67 64 65 64 67 70 71 70 64 62 61 62 58 61 60 64 64 66 68
67 67 67 67 68 68 67 66 65 64 65 66 65 66 68 68 68 69 71 72 72 73 73 72 73 73 74 71 69 69 69 70 69 69 69 68 69 69 69 69 69 70 70 70 69 65 64 66 69 69 68 69 70 66 63 62 63 55 62 64 65 66
67 67 67 68 68 68 66 66 67 68 70 68 67 69 72 72 71 72 73 71 72 72 73 72 72 73 72 72 70 69 69 70 70 69 69 68 68 68 70 71 71 71 71 70 69 66 66 65 66 67 68 69 69 69 72 67 63 62 57 60 62 61
67 67 67 67 67 68 67 67 68 70 71 71 71 69 70 71 72 72 72 72 72 72 73 74 72 72 73 72 71 68 69 69 70 70 69 69 68 68 69 70 69 70 70 71 70 69 67 67 67 66 66 68 68 69 71 71 71 67 64 57 57 61
66 66 66 67 67 67 68 68 69 71 69 72 72 71 71 71 71 71 70 71 71 73 73 72 73 72 72 74 71 70 69 69 69 69 69 69 69 69 68 68 67 67 68 70 70 71 70 69 69 67 66 67 69 70 70 71 70 71 66 62 58 59
66 66 66 66 67 67 68 69 70 69 68 69 70 70 72 70 70 71 70 70 70 71 72 72 72 72 72 74 73 72 70 70 69 69 69 71 70 69 69 68 68 68 69 69 70 70 70 71 70 69 68 68 68 67 68 68 68 69 68 68 63 59
66 66 66 66 67 67 68 70 70 69 69 68 69 69 69 69 70 70 71 70 71 72 72 72 71 71 71 72 71 71 70 71 71 70 70 71 70 71 70 69 69 68 67 67 68 69 70 70 70 69 69 70 70 69 66 66 67 68 68 66 64 61
64 65 65 66 67 67 68 69 70 70 69 69 68 69 70 69 70 71 70 70 71 71 71 71 71 71 70 71 70 70 69 70 70 70 70 70 71 72 71 71 70 68 68 67 68 67 69 69 68 70 69 71 71 72 66 64 69 71 70 68 67 64
64 65 65 66 67 67 67 68 69 70 70 69 69 70 71 70 71 71 71 70 70 71 71 70 71 71 70 69 70 70 70 70 70 70 71 71 71 72 72 72 71 70 69 69 69 69 70 69 69 69 70 70 71 71 67 65 69 71 71 71 69 66
64 65 65 66 67 67 67 67 68 69 69 70 68 69 70 71 70 71 72 71 71 72 71 72 71 72 71 70 71 71 71 71 71 71 71 72 72 72 72 72 71 70 70 70 70 69 70 69 69 69 71 70 71 71 71 72 72 71 70 70 69 68
63 64 65 66 66 66 65 66 67 67 69 70 68 69 70 71 70 70 71 71 72 72 72 72 73 72 70 70 70 70 70 71 70 70 70 69 69 70 70 72 72 70 70 70 69 69 69 69 69 69 69 71 70 71 70 73 73 72 73 72 71 69
64 64 65 66 65 64 65 65 65 65 66 67 68 70 70 70 70 71 70 71 71 71 73 72 71 71 69 70 70 70 70 71 70 70 70 70 70 72 70 71 71 70 70 71 69 68 70 70 69 69 69 70 71 70 70 72 73 73 75 74 73 72
64 64 64 64 63 63 63 63 63 64 64 65 67 69 69 68 69 70 70 71 71 71 70 71 70 70 69 69 70 71 71 70 69 70 70 70 71 71 71 71 71 69 70 70 70 70 70 70 70 70 70 69 71 71 71 71 72 73 73 73 74 73

ECMWFFLT2_sfc_temp_048.txt.gz
Temp
81 80 80 82 80 79 78 76 75 75 75 75 75 75 75 75 75 75 76 75 75 79 79 79 78 79 75 78 75 74 74 75 74 74 73 74 74 74 73 73 73 72 73 73 73 73 73 73 73 72 73 73 73 81 85 85 84 85 86 85 82 82
79 79 79 80 79 79 79 79 80 79 80 77 76 76 77 79 78 79 75 77 80 80 79 76 78 77 77 76 77 74 75 74 74 74 73 73 73 73 73 73 73 72 72 73 72 78 76 74 73 73 73 73 77 85 83 85 86 86 85 84 82 77
79 81 80 81 81 81 81 81 81 81 80 78 79 78 79 80 82 81 81 82 78 78 79 78 73 75 76 74 76 74 74 74 73 73 73 73 73 72 72 72 71 72 72 70 78 81 80 82 79 73 74 76 85 84 84 84 85 85 84 83 81 74
81 82 80 81 82 82 82 82 82 81 79 79 80 81 80 78 83 78 79 77 74 77 77 76 74 72 74 77 76 74 74 73 73 73 73 74 73 73 72 71 72 72 73 78 81 80 81 82 82 80 81 84 85 84 85 86 87 83 84 84 82 73
83 81 82 80 81 83 82 83 81 79 78 78 79 79 79 77 80 79 75 74 75 77 78 75 75 75 75 79 80 79 78 79 78 78 74 80 81 79 79 82 80 77 80 84 84 81 81 83 83 84 83 85 84 84 85 85 85 84 83 81 78 73
82 81 80 80 82 82 81 81 78 75 74 75 75 73 72 70 76 74 73 74 76 76 74 74 70 73 81 82 82 83 83 82 81 80 80 83 83 81 82 81 79 80 82 83 83 83 82 82 84 84 85 84 84 84 85 86 85 83 83 81 77 73
80 80 77 80 82 82 81 80 78 75 74 71 73 74 76 71 72 73 72 75 73 76 78 79 79 81 81 83 82 83 82 82 80 80 80 81 79 80 83 83 82 82 84 85 85 84 84 84 84 85 84 85 84 85 84 85 84 83 83 81 77 73
78 80 80 80 80 81 79 78 78 74 77 76 77 77 77 72 72 71 72 73 74 79 79 80 80 81 82 82 81 80 81 82 82 81 80 80 79 81 81 81 81 84 85 85 85 84 86 86 84 84 84 84 84 83 84 85 84 83 82 81 80 74
78 75 76 76 79 80 80 79 79 77 77 76 78 79 79 77 72 70 70 74 78 79 81 81 81 81 82 81 80 80 80 80 81 82 81 82 82 81 80 82 82 84 84 84 84 84 86 85 83 84 84 84 83 83 83 83 84 84 83 82 79 76
73 71 69 76 79 79 79 79 79 77 75 75 77 78 79 80 79 78 77 79 79 80 80 81 80 82 82 80 80 79 79 79 79 80 80 79 79 81 81 82 83 84 86 84 85 84 85 85 85 84 85 84 82 82 82 83 84 85 84 82 80 77
71 71 74 78 77 78 79 79 79 77 77 77 76 78 79 80 80 79 79 78 80 80 80 80 81 81 81 80 79 79 79 80 81 81 79 78 79 79 80 81 82 83 84 85 85 85 86 85 85 86 83 85 83 82 82 81 83 85 84 81 77 76
70 73 75 78 77 78 78 80 78 77 76 77 77 78 79 79 79 80 80 80 79 80 81 80 80 80 80 80 80 79 80 80 80 81 81 80 79 80 81 82 81 81 81 83 84 84 84 84 84 85 84 85 83 82 83 83 83 83 84 78 74 75
72 73 75 75 76 78 78 78 77 76 76 75 77 77 78 79 79 80 79 80 80 80 80 80 79 79 80 81 80 79 80 79 80 80 80 80 79 80 81 80 80 82 82 82 82 81 84 83 82 83 83 82 83 83 82 81 82 81 81 83 79 77
72 72 73 73 74 77 76 76 77 77 77 76 78 78 79 80 79 80 80 80 80 81 81 80 80 79 81 80 79 79 79 80 80 78 78 79 80 80 81 81 81 81 80 81 80 80 81 81 82 82 81 81 81 81 81 82 81 80 81 82 81 77
72 72 72 72 75 76 74 75 77 77 78 78 78 79 80 80 80 81 82 81 80 80 81 81 81 79 79 81 80 80 79 81 79 78 79 80 81 81 81 80 82 81 80 81 81 81 81 79 78 78 77 78 78 78 78 76 77 80 81 79 79 80
71 72 73 73 74 74 74 75 76 76 77 77 79 80 80 81 82 83 82 81 81 81 81 81 81 80 79 81 82 80 81 80 79 79 79 79 80 80 80 79 80 79 78 78 79 78 79 77 76 75 75 75 75 75 76 76 74 74 79 78 80 78
71 72 73 73 74 74 74 75 75 75 77 77 78 80 81 82 82 81 82 82 81 80 81 80 81 80 80 80 82 81 80 78 78 78 78 78 80 81 79 78 77 78 79 77 77 76 76 76 74 74 74 74 74 75 70 69 75 77 77 77 77 77
71 73 74 73 74 74 74 74 75 76 76 76 77 80 81 82 81 82 82 81 80 80 80 80 80 80 80 81 81 80 78 77 78 78 78 78 79 80 79 78 76 77 78 77 77 76 75 76 75 73 73 74 74 74 76 76 76 76 77 75 74 72
71 73 73 74 74 74 74 74 74 75 74 75 77 79 80 81 82 81 81 80 80 80 80 80 80 80 79 80 80 78 77 76 78 78 77 78 77 77 77 77 76 75 76 78 78 77 76 74 73 73 73 73 74 74 76 75 75 75 74 73 71 71
72 73 74 74 74 74 73 72 72 73 70 75 77 78 79 81 81 82 81 81 80 78 80 79 80 80 78 79 79 78 77 77 78 78 76 76 77 77 75 75 75 74 74 75 77 77 76 75 73 72 71 71 73 74 74 75 75 75 74 73 69 69
72 73 73 74 73 73 72 71 71 72 70 75 77 78 78 80 81 82 81 81 79 79 80 79 80 79 78 77 78 78 77 77 78 77 76 76 76 75 75 76 75 74 73 73 74 76 76 77 72 68 70 70 71 73 72 72 73 74 73 70 69 67
73 73 74 74 74 74 75 75 74 75 72 72 78 77 78 79 79 80 79 79 79 80 80 79 79 78 78 78 77 77 76 77 77 77 76 77 77 75 75 75 75 73 75 74 72 75 76 76 69 67 68 69 69 71 71 72 72 73 73 72 71 70
73 73 74 74 74 75 76 75 75 76 77 78 80 80 81 80 80 80 77 79 79 79 79 79 80 80 78 78 77 77 76 77 77 76 74 74 75 74 75 74 75 74 73 75 74 75 75 76 73 71 73 70 67 66 67 69 70 71 72 73 73 72
73 73 73 74 74 76 75 75 75 76 77 78 77 78 78 78 78 78 78 79 80 79 79 80 81 81 79 78 77 76 76 77 77 77 76 75 75 74 73 75 75 75 74 71 74 74 75 75 76 73 67 70 69 69 62 63 67 69 71 72 73 73
71 72 73 73 73 74 73 71 72 74 76 76 76 76 76 76 76 77 78 78 78 79 79 80 80 81 81 78 77 76 76 76 76 76 78 77 76 75 76 76 75 74 74 73 72 71 72 74 74 71 67 69 66 65 66 63 67 65 66 70 73 74
71 72 72 72 73 72 70 66 69 70 69 71 71 72 73 73 75 75 77 78 80 80 79 79 80 80 80 78 76 76 76 76 75 75 76 76 76 76 75 76 75 75 74 75 74 71 70 72 74 75 74 71 72 66 64 69 68 61 69 71 71 71
71 71 72 72 72 70 67 71 72 73 74 73 72 74 75 76 77 78 78 77 78 78 80 79 79 80 79 79 77 77 77 78 78 76 76 75 75 75 77 78 77 76 76 76 75 73 71 72 74 74 75 75 74 75 68 70 64 63 63 66 67 64
71 72 71 72 72 71 71 72 72 74 74 75 75 75 76 77 78 79 77 77 78 78 79 80 79 80 79 78 77 76 77 77 77 78 77 76 75 76 77 77 75 75 76 77 75 74 73 75 72 73 73 71 72 75 76 72 72 73 71 63 60 64
70 71 71 71 72 72 73 73 74 74 75 76 77 77 78 78 78 77 76 77 77 79 79 79 79 78 79 78 77 76 76 77 76 76 78 78 77 77 75 74 73 73 74 74 75 74 74 74 74 74 72 71 75 75 75 75 74 71 71 64 63 61
71 71 71 71 72 72 72 73 74 75 75 75 77 78 78 77 76 76 76 76 77 77 78 78 78 79 79 78 77 77 77 77 76 77 77 78 77 75 74 73 73 73 73 73 75 74 73 73 73 74 75 72 73 73 73 73 73 69 71 71 67 66
70 71 70 71 71 71 73 74 75 76 75 75 76 76 75 75 76 75 75 76 76 77 78 78 78 77 78 79 77 78 77 77 77 76 77 77 75 76 74 73 73 73 72 72 74 74 73 73 73 74 75 74 73 72 68 67 65 67 67 69 69 68
69 69 70 71 71 71 72 74 76 76 76 76 76 75 75 74 75 76 76 76 77 78 77 77 77 77 76 77 76 76 77 77 77 76 76 77 76 76 76 75 73 73 73 73 73 73 73 73 72 73 73 76 71 69 73 69 68 65 67 64 69 69
69 69 70 70 70 71 72 74 75 76 76 76 76 77 76 76 77 77 77 76 76 76 77 76 76 76 76 76 77 76 76 76 77 76 77 78 77 77 77 75 75 73 73 72 73 73 74 72 72 73 74 75 70 67 71 75 75 71 66 65 69 69
69 69 69 69 70 69 71 71 74 76 76 76 76 76 77 77 77 78 78 77 77 78 77 76 76 76 77 77 78 77 77 77 78 77 77 77 77 77 77 76 76 74 73 73 73 72 73 72 72 73 73 73 76 67 72 76 76 73 68 68 68 70
68 67 68 66 68 67 65 70 74 75 74 75 76 77 78 78 77 77 78 77 78 78 78 78 78 78 78 77 77 77 77 76 76 76 76 76 77 77 77 77 77 75 75 74 74 73 72 73 72 73 72 72 72 73 73 78 78 76 73 70 67 72
68 67 66 65 65 67 68 72 73 72 73 73 74 77 78 77 76 76 77 78 78 78 79 79 78 78 77 77 77 77 77 77 77 76 77 77 77 78 76 75 76 75 75 77 74 73 74 74 73 73 73 74 69 72 76 78 80 78 73 75 75 77
63 63 62 62 62 64 68 69 70 72 73 73 74 76 76 74 74 76 78 78 78 78 78 78 77 77 76 77 77 77 77 76 76 76 76 77 77 77 76 75 76 75 75 76 75 75 75 75 75 75 74 73 73 76 77 77 78 79 79 77 76 77